ECMWFFLT1_925_thetae_000.txt.gz
Theta_e
354 359 358 358 361 361 362 361 361 362 362 361 362 362 361 361 362 362 361 362 361 359 355 351 349 347 346 345 341 339 340 338 338 337 335 333 333 335 337 338 338 338 337 336 335 336 337 337 335 333 334 335 334 334 332 333 333 333 334 334 334 335 335
353 359 359 357 360 361 361 361 361 362 361 362 362 361 361 361 361 362 361 360 359 358 355 351 350 348 346 344 341 340 340 339 338 336 335 334 333 334 336 338 338 337 336 335 334 335 334 334 333 332 335 336 335 333 334 334 334 334 334 334 334 334 334
351 357 359 358 360 360 362 361 361 363 361 361 362 361 361 360 361 361 360 359 358 356 354 351 350 347 345 343 341 341 340 337 337 337 334 334 334 334 335 336 336 336 336 334 333 334 334 334 334 334 335 336 334 335 335 335 335 335 334 334 334 334 335
350 355 357 357 359 360 362 362 361 363 362 360 361 361 360 360 361 360 359 358 356 354 353 351 349 346 344 343 342 341 339 337 338 337 335 334 334 334 335 333 334 334 334 334 333 335 336 335 335 335 335 334 335 335 336 335 335 334 334 334 334 334 334
352 354 355 356 358 360 362 362 362 363 361 360 360 360 360 360 359 359 357 356 355 354 353 350 348 346 343 343 343 342 339 338 338 336 335 335 333 334 335 334 335 335 334 334 335 337 338 337 336 335 336 336 336 336 335 335 334 334 334 334 333 333 333
353 353 354 354 356 359 361 362 361 363 361 360 360 359 360 359 358 358 356 355 354 353 352 350 347 345 344 344 343 342 339 338 338 337 336 336 335 336 337 337 337 335 334 335 336 338 339 338 337 337 336 336 335 335 335 335 335 333 333 332 332 332 332
351 352 354 353 355 358 360 360 361 361 360 360 360 359 358 358 358 357 354 354 352 351 350 348 346 345 344 343 344 342 340 340 339 337 338 338 337 337 338 338 337 335 334 335 336 338 338 337 337 337 335 334 333 333 334 334 333 332 330 330 330 331 331
350 351 353 353 353 356 358 360 360 360 360 358 358 358 357 358 358 355 354 353 351 350 349 347 346 345 344 344 344 343 342 341 340 338 338 338 338 339 338 338 337 334 334 335 336 337 336 336 336 335 334 333 333 334 333 332 332 330 329 329 330 330 331
350 351 353 352 352 354 357 358 358 359 359 357 357 357 356 357 357 354 353 352 350 350 348 347 346 345 345 345 344 343 343 342 340 339 339 339 338 339 338 337 336 333 333 335 336 336 336 335 335 334 333 334 335 335 334 331 330 329 329 329 330 332 334
352 351 351 351 351 352 355 355 357 358 357 357 356 357 356 356 356 354 353 351 350 349 348 346 346 345 346 346 345 345 343 341 340 341 340 340 338 339 337 336 334 333 333 335 335 336 337 337 336 334 334 334 334 333 332 330 329 329 329 330 332 332 332
353 353 353 352 351 353 354 355 358 358 356 356 356 356 356 355 355 353 352 351 349 348 347 346 346 346 346 346 346 345 344 342 342 342 342 341 339 338 337 335 334 334 335 336 337 338 338 337 336 334 333 333 332 331 330 330 330 330 330 330 330 329 329
355 356 354 353 353 353 354 357 358 358 356 356 356 356 355 354 354 352 351 351 350 348 347 347 346 346 346 345 345 345 344 343 343 343 342 341 340 338 338 336 336 337 337 339 340 338 336 334 332 331 332 333 332 331 331 331 330 329 329 328 328 327 328
358 358 356 354 353 354 356 358 359 360 357 356 355 355 354 353 352 351 351 350 349 348 347 346 346 347 346 346 345 345 345 344 344 343 342 340 340 339 338 338 337 339 340 340 339 336 334 332 331 332 333 332 332 332 332 332 330 329 329 328 326 327 328
362 361 358 357 355 356 359 359 361 360 356 355 356 355 354 353 351 350 350 349 348 348 347 346 347 348 347 346 346 346 345 344 343 343 341 340 340 339 338 339 339 340 341 341 338 335 334 334 334 333 332 333 334 334 333 332 330 328 328 328 327 328 329
365 364 360 359 357 357 358 358 360 360 356 355 355 354 353 352 350 349 349 349 349 347 347 347 347 348 348 346 346 346 345 344 344 343 341 340 340 339 338 338 339 340 341 340 337 336 335 335 335 334 333 334 335 335 334 332 330 328 327 327 328 328 329
365 366 364 360 356 355 356 357 359 359 357 355 353 354 353 351 350 349 348 348 348 347 346 346 347 348 348 346 346 346 345 344 344 343 341 340 340 338 336 337 338 339 339 338 337 336 336 335 334 334 334 335 335 335 335 332 330 328 326 326 328 329 328
363 365 364 361 359 356 355 355 356 358 358 354 353 353 352 351 349 348 347 347 346 347 346 346 346 347 347 346 345 346 345 343 343 343 342 340 338 336 336 336 338 338 338 338 336 336 335 334 334 335 334 335 335 336 334 332 330 328 325 327 328 328 327
360 365 368 368 365 360 357 357 355 356 356 353 352 353 351 352 350 347 347 347 346 346 346 345 345 346 347 346 345 344 344 341 342 343 341 339 338 336 337 337 338 339 338 337 336 335 334 334 334 335 334 335 336 336 334 332 331 329 326 327 328 328 327
362 367 375 378 375 365 359 358 355 351 351 351 352 352 351 351 350 348 346 346 345 345 345 345 345 346 346 345 344 343 341 338 340 343 341 339 338 337 338 339 339 338 337 336 335 334 334 334 335 335 335 335 335 336 334 331 331 330 328 328 328 327 327
364 366 374 386 393 383 366 358 354 348 349 351 352 352 351 351 350 348 346 346 345 345 345 345 346 346 346 345 345 343 339 338 341 342 341 340 339 338 339 340 338 337 336 335 334 334 333 334 334 335 334 335 336 335 334 332 331 330 329 328 328 327 326
365 363 366 380 399 402 379 359 353 350 349 351 351 351 352 351 349 348 346 346 345 345 346 346 345 344 342 341 339 338 338 341 343 343 341 341 339 340 339 339 339 338 336 335 334 333 333 334 334 334 334 336 336 335 335 334 332 330 329 329 328 327 326
365 362 366 377 390 397 378 357 352 352 351 352 351 351 352 351 350 349 346 345 345 345 345 344 341 338 335 335 334 332 335 341 344 343 343 342 340 340 340 339 339 338 335 335 334 333 333 333 333 335 336 336 334 333 334 335 333 330 329 328 327 327 327
362 367 376 370 359 357 355 350 352 353 351 352 352 351 352 351 350 347 344 343 344 344 342 339 336 334 333 335 333 331 335 343 345 344 343 342 341 341 340 340 338 336 334 335 334 334 335 336 336 337 337 335 334 334 335 334 331 329 328 327 326 327 327
355 365 367 355 345 344 347 350 352 352 351 353 353 351 352 349 347 344 340 341 342 341 340 337 334 334 335 335 333 333 339 344 344 343 342 341 341 341 339 338 336 334 335 335 335 336 337 337 337 336 333 332 334 336 335 332 329 328 327 326 326 327 326
362 361 348 343 350 355 356 356 353 351 352 352 350 350 351 347 344 342 340 340 341 340 340 338 336 336 336 334 334 338 342 340 337 339 340 340 340 339 338 337 336 335 337 337 337 338 338 337 337 335 332 331 333 334 331 329 328 327 325 325 326 326 325
369 364 349 345 352 355 355 356 353 350 349 349 348 350 349 346 344 342 341 342 341 341 342 341 339 338 336 333 335 340 341 336 332 335 339 340 339 337 337 337 337 337 338 339 339 339 338 336 335 335 335 334 334 332 330 328 328 325 325 325 325 325 324
350 350 347 347 351 352 349 349 350 349 349 349 349 349 348 346 345 342 341 342 341 342 343 343 340 338 334 333 336 339 341 335 331 335 340 340 338 338 338 338 338 339 339 339 338 337 334 331 329 332 335 334 333 331 329 328 326 324 324 324 323 323 324
344 345 350 350 350 350 347 345 347 348 348 348 348 348 349 346 345 342 341 341 341 341 340 341 339 337 335 335 337 340 340 335 334 337 342 341 339 338 338 338 339 339 338 336 333 331 329 328 329 332 333 332 331 329 327 326 325 324 323 323 323 323 323
349 349 355 353 349 348 345 343 342 343 345 347 347 348 349 346 343 342 340 340 341 341 340 339 339 340 340 338 339 341 339 337 339 341 341 340 339 338 338 337 337 336 334 332 330 328 327 330 332 332 332 330 329 327 326 325 324 324 323 323 323 324 323
363 354 351 350 349 347 344 341 341 342 342 344 345 346 347 346 344 341 340 341 341 341 340 340 340 342 343 340 339 339 339 339 340 341 340 339 338 338 337 335 333 332 331 330 329 327 328 332 333 331 329 327 326 325 324 323 323 323 323 323 323 323 323
356 348 347 348 349 347 343 340 341 340 340 342 343 344 344 344 343 341 341 341 342 341 340 340 340 341 341 339 337 337 337 337 338 338 338 338 337 336 335 332 331 331 329 328 327 328 331 332 330 327 325 324 323 323 323 322 322 322 323 323 323 323 322
347 341 343 349 351 348 343 339 338 339 339 340 339 339 340 340 339 339 338 338 338 339 339 339 338 338 336 334 334 333 332 331 332 334 335 334 333 332 331 328 328 329 328 328 330 331 331 329 325 323 324 322 322 323 323 321 321 323 324 324 323 322 321
356 343 341 347 351 347 341 338 338 339 339 339 339 340 339 338 337 336 336 336 336 337 338 336 334 333 331 330 330 330 328 328 330 332 332 330 329 328 327 326 325 327 330 330 331 330 328 325 324 323 322 322 322 323 322 321 321 322 323 323 323 321 320
359 344 341 345 348 344 340 339 339 338 336 337 340 340 337 336 335 332 331 332 331 332 332 330 327 325 324 326 328 329 329 330 331 332 330 329 327 327 327 326 326 327 330 330 329 327 325 324 323 322 321 322 323 324 323 322 321 321 322 322 322 321 319
345 340 340 341 342 341 340 339 337 334 333 335 338 337 336 336 333 331 329 327 325 325 326 328 328 325 321 324 328 328 329 331 332 331 329 328 327 327 327 328 328 328 329 328 327 326 324 323 322 321 320 321 322 323 323 323 322 321 321 321 320 319 317
340 339 340 339 340 341 340 336 333 332 332 335 336 336 336 333 330 330 330 326 323 323 323 328 332 330 326 328 328 325 327 333 332 329 328 327 327 327 327 326 327 326 326 325 324 323 322 321 321 321 320 319 320 322 323 323 322 321 320 319 318 317 316
340 339 339 338 338 338 335 331 331 331 331 332 333 334 333 330 327 328 329 326 325 325 324 325 328 327 327 329 327 324 327 333 331 328 327 327 326 326 325 324 323 322 322 322 321 321 321 321 321 320 319 319 320 321 321 321 321 319 317 316 316 316 315
341 339 339 338 336 334 332 331 331 331 331 331 333 333 332 330 329 329 330 329 328 328 329 327 326 324 324 325 325 326 330 332 330 327 326 325 325 324 324 322 320 319 319 320 320 320 320 320 319 319 318 319 319 319 318 318 318 316 315 315 315 315 314

ECMWFFLT1_925_thetae_003.txt.gz
Theta_e
354 355 356 356 358 359 360 359 358 359 359 359 359 359 359 359 360 359 358 358 358 358 358 357 357 357 356 355 354 352 346 341 339 337 337 336 336 334 332 333 336 338 340 340 337 336 335 337 338 336 334 333 331 332 332 332 332 332 332 332 333 334 334
354 355 356 357 358 359 361 360 358 359 359 359 359 359 359 359 359 359 359 358 358 358 357 357 357 357 356 355 354 349 343 341 339 337 336 337 336 334 332 332 336 338 339 338 336 336 336 336 337 335 333 332 333 334 333 333 334 334 334 334 334 334 334
352 355 358 357 359 360 361 361 359 359 359 359 360 359 360 360 359 359 358 357 358 358 357 356 357 357 355 354 351 345 342 340 339 336 335 336 335 334 333 333 335 337 338 337 336 335 335 335 335 333 331 331 334 335 334 334 335 335 334 334 334 334 333
351 354 356 357 359 359 360 361 359 359 359 359 360 359 360 360 359 360 358 357 358 358 356 355 355 356 353 351 347 343 342 341 338 336 336 336 335 334 333 334 336 337 337 337 335 334 334 333 333 333 332 332 335 336 335 335 335 335 334 333 333 333 333
350 352 355 357 358 359 361 360 359 359 359 359 360 359 360 360 359 359 359 358 358 356 355 354 355 354 351 350 348 344 344 341 338 337 337 336 335 333 333 333 335 336 335 335 334 333 332 333 333 334 334 334 335 336 336 335 335 335 334 333 333 332 331
349 351 355 356 357 358 359 359 359 359 359 360 359 359 360 360 360 360 359 358 357 356 355 354 353 351 350 349 347 345 344 341 338 338 337 336 335 333 334 333 334 334 332 333 332 332 333 336 336 335 335 336 337 336 336 335 334 334 334 333 332 331 330
348 349 353 355 356 357 357 358 359 359 359 360 360 359 360 359 359 359 359 358 357 356 354 353 352 350 348 348 346 345 344 340 337 338 337 336 335 334 334 333 334 333 331 331 332 333 335 337 338 337 337 336 337 335 334 333 333 333 333 332 330 330 329
347 349 351 354 355 355 356 357 358 359 360 359 359 360 360 359 360 359 358 357 356 356 354 353 352 350 349 346 345 345 344 340 337 337 337 336 336 334 334 334 334 334 333 333 333 334 335 336 337 337 337 336 335 334 332 332 333 332 332 330 329 329 329
348 349 349 351 353 354 356 355 356 358 359 359 359 359 359 359 359 358 358 357 356 355 354 352 351 350 349 346 345 345 342 339 338 338 338 336 335 335 335 334 335 336 336 335 334 334 334 335 336 336 335 335 333 331 331 332 333 331 330 329 329 330 330
349 349 351 351 351 354 355 354 357 358 359 359 359 359 359 358 359 358 358 357 356 355 354 352 350 349 347 346 344 344 341 339 339 338 338 337 336 337 336 336 337 337 337 336 333 332 333 334 335 334 334 334 332 331 331 333 332 331 330 330 330 330 329
350 350 352 352 351 354 355 356 359 358 358 359 359 359 358 358 358 358 357 357 356 355 353 352 350 348 347 346 344 342 340 338 339 339 338 338 337 337 337 337 337 337 337 337 333 332 332 333 335 335 336 335 334 332 332 331 330 330 331 331 330 329 328
351 352 352 353 353 353 354 357 360 359 358 359 359 359 358 357 358 357 357 357 355 354 353 351 349 348 346 345 343 342 340 339 339 339 339 339 338 338 339 338 337 337 337 336 333 332 332 334 335 337 337 337 335 332 331 331 331 331 332 330 329 328 327
351 352 350 353 352 352 354 356 359 360 358 358 359 358 358 358 357 357 357 356 355 354 352 350 349 347 346 345 343 342 340 340 340 339 340 340 338 338 339 339 338 336 335 334 333 333 334 336 337 338 337 334 332 331 331 331 332 332 332 331 328 327 327
352 351 350 353 351 352 354 355 357 359 356 356 357 357 358 357 356 357 356 356 354 353 352 350 349 347 346 345 343 343 342 340 340 340 340 340 337 336 339 340 338 335 333 332 333 334 336 338 338 336 334 332 330 330 331 332 332 333 332 330 328 327 327
353 352 351 352 351 353 354 352 355 357 355 355 356 356 357 356 356 356 355 355 354 352 351 349 348 347 346 346 344 343 342 341 341 341 341 340 337 337 340 340 339 336 333 333 334 336 338 339 337 334 332 331 332 331 332 333 334 334 333 331 328 327 326
354 352 352 352 351 352 353 352 354 355 356 355 353 355 356 355 356 355 354 354 353 352 351 349 348 347 346 346 345 343 342 342 342 342 342 340 338 339 341 340 339 338 336 335 336 337 338 339 337 335 333 334 333 332 333 334 334 335 334 332 328 326 325
355 353 352 353 353 353 353 353 353 355 357 354 352 355 355 355 355 354 354 354 352 352 351 349 348 347 346 346 345 344 343 342 342 343 342 341 340 341 341 340 340 338 336 337 338 337 339 340 338 335 335 334 334 333 333 334 334 335 335 333 330 327 326
357 356 357 357 357 357 356 356 356 356 356 353 352 354 354 354 355 353 353 353 352 352 350 348 348 347 346 346 344 344 343 342 342 342 341 341 341 341 341 340 339 337 335 337 338 338 339 340 338 336 335 334 334 333 334 334 334 334 335 333 331 328 327
359 359 360 360 360 359 357 356 355 353 351 351 352 354 354 354 354 353 353 352 351 351 350 348 348 347 346 346 344 343 342 341 341 340 337 336 338 341 342 340 338 337 336 337 337 338 339 339 338 336 335 334 333 334 334 334 334 335 336 335 332 330 328
358 361 363 363 362 360 358 356 351 346 348 350 352 353 354 353 354 353 352 351 350 350 348 348 347 346 346 345 343 341 342 340 339 337 332 332 336 340 342 340 338 336 336 336 336 337 339 339 338 337 335 334 333 333 334 334 334 334 335 335 334 331 329
358 363 364 364 367 365 361 358 351 344 345 349 350 352 353 353 354 353 350 349 348 347 347 347 346 346 345 344 342 340 341 341 339 335 331 330 334 339 341 341 339 336 335 335 335 336 337 338 337 336 334 334 334 333 333 334 334 334 333 333 334 331 329
357 362 366 371 380 376 362 354 350 345 345 347 348 350 352 352 353 353 350 347 346 345 345 345 345 345 344 344 342 340 341 341 338 334 332 331 333 338 341 341 340 338 336 336 335 336 337 337 336 336 335 334 334 334 335 334 333 333 332 332 333 331 329
352 361 369 371 368 364 353 347 349 348 347 348 347 348 351 352 351 351 348 346 345 344 343 343 343 344 344 343 342 341 341 340 336 333 333 333 333 337 340 340 340 339 337 337 338 338 338 337 336 335 335 335 335 335 335 334 331 331 332 333 333 331 329
346 354 358 351 343 342 345 347 350 349 348 349 348 348 349 350 350 350 347 345 345 344 343 342 343 343 343 343 341 340 339 338 336 333 331 329 331 336 339 340 340 340 338 338 338 338 338 337 336 335 335 336 335 334 333 332 330 330 333 334 333 331 328
351 349 346 341 338 339 344 348 349 349 350 350 349 349 350 350 351 349 347 345 344 343 342 341 341 341 341 340 339 339 338 337 336 333 329 327 330 336 340 341 340 339 338 338 338 338 337 337 336 336 336 334 333 332 331 331 331 331 331 331 331 330 328
359 353 350 349 348 344 346 350 350 350 351 350 350 351 350 349 349 347 346 345 343 342 342 341 341 341 338 337 338 337 336 335 334 332 329 328 332 337 340 340 338 336 335 336 338 337 337 337 335 334 332 330 329 328 328 331 332 331 329 329 328 328 327
347 348 350 350 351 350 349 350 349 349 351 350 350 351 350 349 348 345 345 344 341 340 341 340 339 338 336 336 336 336 336 335 331 330 328 327 332 338 340 340 339 337 335 335 337 337 336 335 332 331 329 327 327 327 329 331 331 329 328 327 326 326 325
352 357 355 348 349 350 348 348 348 348 349 349 349 350 349 348 346 344 342 341 339 339 339 337 336 335 335 336 336 335 336 334 331 330 329 331 335 338 339 338 338 337 336 335 336 336 333 330 329 330 328 327 327 328 331 331 330 328 327 326 325 324 324
363 366 357 348 346 347 345 345 345 344 345 346 346 346 345 344 344 343 340 338 338 338 337 336 335 334 335 336 336 336 336 334 333 333 334 335 336 337 337 337 336 335 336 336 334 332 329 328 328 329 329 329 329 331 331 330 328 327 326 325 324 324 323
364 359 354 349 348 346 343 341 342 341 342 343 343 343 343 343 342 340 338 337 337 338 337 335 334 334 335 336 337 337 336 335 335 336 336 336 337 337 336 336 335 335 336 334 331 329 328 327 328 329 330 331 331 331 330 328 327 325 324 323 323 323 323
350 347 349 349 347 345 341 340 341 341 340 341 342 342 342 343 341 339 337 336 337 337 337 336 335 336 335 335 335 336 336 335 335 336 336 337 337 336 335 334 334 335 334 331 329 328 327 327 329 331 332 331 330 328 327 325 324 323 322 322 322 323 322
341 336 340 346 346 344 341 340 339 339 339 339 340 341 341 341 341 339 337 337 337 337 336 336 337 336 336 336 336 335 335 336 335 334 334 335 336 335 334 334 334 333 331 329 328 327 327 328 331 332 331 329 327 325 324 323 322 322 321 322 322 322 321
348 336 335 341 344 342 339 339 338 338 338 337 337 338 339 339 338 337 336 336 336 336 335 335 335 335 335 335 334 333 333 332 331 331 332 334 335 333 332 332 333 332 330 328 327 327 328 331 332 330 328 325 323 322 322 322 321 321 321 321 322 321 320
346 338 336 340 341 340 338 338 337 337 337 335 335 335 335 334 333 331 329 329 329 330 330 330 330 328 328 328 329 331 330 328 327 329 330 332 332 330 330 330 329 329 328 327 327 328 330 331 331 328 325 323 322 322 322 322 322 321 321 321 322 321 319
339 336 338 340 340 339 339 337 336 337 336 334 333 331 331 330 329 327 326 325 324 325 326 326 327 326 326 327 328 329 326 323 324 325 326 328 329 328 327 327 327 327 327 327 328 329 329 329 328 325 323 322 321 321 321 321 321 321 321 321 321 320 318
336 336 337 339 338 338 337 336 336 336 335 333 331 328 326 326 326 326 326 325 324 324 324 325 326 327 326 326 325 324 323 323 324 325 325 326 326 325 325 326 326 328 328 329 329 329 327 326 325 323 322 321 320 321 321 321 321 322 321 321 320 318 316
338 337 337 337 336 334 333 334 336 336 334 331 327 324 324 325 325 325 325 325 325 325 324 324 325 325 325 324 324 324 324 324 325 324 324 324 324 324 325 325 325 326 327 327 327 326 324 323 322 321 321 320 320 320 320 320 321 322 321 319 318 316 315
339 339 339 337 334 332 333 335 335 335 333 330 326 325 325 324 324 325 326 326 325 326 325 325 325 325 325 326 326 325 324 325 326 325 323 323 324 324 324 324 323 322 323 323 324 323 322 321 321 321 320 320 319 319 319 319 320 320 318 316 315 315 314

ECMWFFLT1_925_thetae_006.txt.gz
Theta_e
347 348 350 351 352 353 355 355 354 355 355 355 356 356 356 356 356 355 355 355 355 355 356 356 357 357 358 359 360 360 359 357 357 354 347 343 343 341 339 338 338 337 337 339 339 338 336 335 335 338 338 336 334 331 329 331 331 331 331 331 332 333 333
349 349 350 351 353 354 355 355 355 355 355 356 356 356 356 356 356 356 355 355 355 355 356 356 357 357 357 358 359 358 356 356 356 351 344 341 340 339 337 337 336 335 336 337 339 338 336 335 334 337 337 335 333 331 330 332 332 332 333 332 333 333 333
349 350 350 351 353 354 355 354 354 356 356 356 357 356 357 357 356 356 356 356 356 356 356 356 356 356 356 357 357 356 355 355 354 349 343 340 338 337 336 335 334 333 334 337 339 338 336 335 335 336 336 334 333 331 331 333 333 333 334 333 333 333 333
349 351 351 352 353 353 355 354 354 356 356 357 357 356 357 357 357 357 357 357 357 356 357 356 355 355 355 356 356 355 355 354 353 349 344 340 337 336 335 334 333 333 335 338 339 338 336 335 336 336 335 334 332 329 331 334 334 334 334 334 333 333 333
349 351 352 353 353 353 355 355 354 355 356 357 357 357 357 357 357 358 357 358 357 357 357 355 355 355 355 356 355 354 355 354 353 349 343 339 337 336 335 334 333 333 335 338 338 337 336 335 336 335 335 333 329 328 332 335 334 334 335 334 333 333 332
348 351 353 353 353 353 355 354 355 356 356 357 357 357 358 357 357 358 358 358 357 356 356 355 354 354 354 354 354 353 354 354 352 348 343 339 337 336 335 334 333 332 334 336 337 337 336 335 334 333 332 331 329 329 333 335 335 335 335 334 333 333 332
348 350 352 352 353 353 354 354 355 356 356 356 357 357 358 357 357 357 358 357 357 356 355 355 354 353 353 353 352 353 353 352 350 346 342 339 336 335 335 334 333 332 332 334 336 336 335 333 332 331 330 330 331 332 334 335 335 335 334 334 333 333 332
347 349 349 351 353 353 353 354 354 356 357 356 357 357 358 358 358 357 358 357 357 356 355 355 354 353 353 352 350 351 350 350 348 345 342 339 336 335 335 334 333 332 332 333 334 333 332 331 331 331 331 333 334 334 335 336 335 333 332 333 333 332 331
348 349 348 349 351 352 354 354 354 355 357 357 357 357 357 358 358 357 358 357 357 357 356 355 354 353 352 350 349 349 349 348 347 344 341 339 336 335 334 333 333 332 332 333 333 331 330 329 330 332 334 335 336 336 336 336 334 332 331 332 332 330 328
349 350 349 349 350 353 354 353 355 356 356 357 357 357 357 358 358 358 358 357 357 357 356 356 354 353 351 350 348 347 347 346 345 343 340 338 336 335 334 333 333 332 332 333 332 330 329 329 330 333 336 337 337 337 336 335 332 330 331 332 331 329 329
350 350 350 350 351 354 355 355 356 356 356 357 357 357 358 357 358 358 358 358 357 357 357 355 354 352 351 349 348 346 344 344 344 343 341 339 336 334 333 333 333 332 332 333 332 331 331 331 332 334 335 336 336 336 335 333 330 329 330 330 329 330 330
351 352 351 351 351 354 355 356 357 357 355 356 357 357 358 357 358 358 357 358 357 357 357 356 354 352 350 349 347 345 344 343 342 342 341 338 336 335 334 333 333 333 333 333 333 333 333 332 333 333 333 334 335 335 334 333 331 330 330 330 330 331 331
352 351 349 350 350 352 355 356 357 357 355 355 356 357 358 358 358 358 357 358 357 357 357 356 354 352 350 348 347 345 343 342 341 341 339 336 335 335 335 334 334 334 333 334 334 334 334 334 333 332 332 333 334 334 335 336 334 331 330 330 331 331 331
353 352 350 351 350 351 355 355 356 357 354 353 355 356 357 357 357 357 357 357 357 357 356 355 355 352 350 348 347 345 344 342 340 339 337 336 335 334 335 336 335 335 336 336 335 334 335 335 334 332 332 333 334 336 337 336 334 331 331 331 331 332 332
354 353 350 351 350 351 353 353 354 356 354 352 353 355 356 357 357 357 357 357 357 357 357 355 355 352 350 348 346 346 345 341 338 337 337 337 336 335 336 336 335 337 337 336 336 335 334 335 334 333 332 334 336 337 336 332 330 330 330 331 332 332 332
353 351 350 350 350 351 351 351 352 354 354 352 352 354 356 356 357 357 356 357 357 356 356 355 354 352 350 348 346 346 343 339 337 337 336 337 335 334 336 336 336 337 337 337 337 336 335 335 335 333 334 336 337 336 333 331 330 330 330 331 333 333 333
352 350 349 349 349 350 351 352 352 355 356 353 350 353 355 355 356 356 356 356 356 356 356 354 354 352 350 348 346 344 342 338 337 336 337 337 336 335 336 336 336 337 338 337 337 337 336 335 334 334 335 337 337 334 332 331 332 331 331 332 333 334 334
351 350 350 350 350 352 352 353 355 356 355 350 348 351 353 354 355 355 356 356 355 355 355 353 353 351 350 349 346 343 341 338 337 337 337 337 336 337 337 335 335 338 338 337 338 337 336 335 333 334 336 338 339 336 333 333 333 332 331 332 332 333 334
349 349 350 350 351 352 352 353 353 351 349 346 347 350 351 353 354 354 355 355 355 355 354 353 352 350 349 348 346 344 341 339 338 338 337 336 336 338 338 335 336 337 335 337 339 338 337 336 334 335 337 338 339 338 335 334 334 333 332 331 332 333 334
350 350 351 352 354 353 353 354 350 345 344 345 347 348 350 352 353 354 355 355 354 354 353 352 351 349 348 347 346 344 342 340 340 339 338 336 336 338 339 339 337 332 330 335 340 338 338 337 336 336 337 338 339 338 336 334 334 333 332 332 333 333 334
354 357 357 358 359 357 357 358 352 344 343 346 346 347 349 350 351 353 353 353 354 353 353 352 350 348 348 347 346 345 343 341 339 338 339 337 334 336 339 338 334 331 333 338 339 339 339 337 336 336 336 337 338 337 337 336 334 333 332 333 334 334 335
357 360 361 362 363 362 357 354 350 345 345 346 347 347 349 350 351 352 352 352 353 352 351 351 349 348 347 347 346 345 343 341 339 338 338 337 334 336 337 333 330 331 337 340 340 339 340 338 337 336 336 336 337 337 337 336 335 334 333 334 334 334 334
353 357 362 360 356 354 350 346 345 345 345 346 346 347 349 350 351 352 352 351 351 351 350 349 348 347 347 346 346 344 343 341 339 338 338 338 337 336 335 333 332 333 336 338 338 338 339 338 338 337 337 336 336 337 337 336 335 335 334 333 333 332 332
347 351 354 350 346 346 345 345 345 345 345 346 346 347 348 349 351 352 351 350 349 348 348 347 347 346 346 346 345 344 342 340 339 338 338 337 336 335 334 333 333 332 332 334 336 337 338 338 337 337 337 337 337 337 336 336 335 335 334 332 330 331 333
355 356 348 342 341 343 344 346 346 345 346 346 346 346 346 348 350 351 350 348 347 345 345 344 344 344 345 345 344 343 342 340 338 338 337 335 334 334 333 330 327 327 330 334 337 338 338 337 336 336 336 336 336 336 335 335 335 334 333 332 330 331 333
369 372 358 345 342 342 344 347 347 346 347 347 347 347 347 347 349 348 347 345 344 343 343 342 342 343 343 344 343 341 340 339 337 336 335 334 332 331 331 328 326 328 333 336 337 337 337 337 336 336 336 335 335 334 333 333 333 333 333 331 329 330 331
356 359 353 346 345 345 346 347 346 346 346 346 347 347 345 347 347 345 344 343 342 342 342 341 342 342 342 343 341 340 339 338 337 335 334 332 331 330 330 329 330 333 336 337 337 336 336 336 335 334 334 334 334 333 332 332 332 331 330 329 329 330 329
352 351 347 344 344 345 346 345 345 344 344 344 346 346 346 346 345 343 342 342 341 341 341 340 341 341 341 341 339 338 338 337 336 335 333 331 329 328 329 329 331 335 337 338 338 336 335 335 334 333 333 333 332 332 332 332 330 328 327 329 330 329 327
349 349 346 344 342 342 343 343 342 342 343 344 345 345 345 345 342 341 341 339 339 340 340 339 340 340 340 339 338 337 337 336 334 332 330 329 327 326 328 331 333 336 338 337 337 335 334 334 334 332 332 331 331 331 329 328 328 328 329 330 329 327 325
348 348 346 342 340 340 341 341 340 340 342 342 343 344 344 344 342 339 338 338 338 339 339 339 339 339 338 338 336 336 335 333 331 329 329 329 330 330 332 334 335 336 336 336 334 333 333 333 332 331 330 330 330 329 327 327 329 330 329 328 326 325 325
344 344 344 342 340 340 340 340 339 340 340 341 342 343 343 343 342 339 337 338 338 338 338 337 337 338 337 336 335 334 333 332 331 331 332 334 335 335 335 335 335 335 335 334 333 333 334 333 332 331 329 327 327 327 327 328 329 329 328 326 325 324 323
342 337 338 341 341 340 340 340 339 339 339 339 341 342 342 342 342 340 338 338 338 338 337 336 336 336 336 335 335 334 333 333 333 334 335 336 336 336 335 335 335 334 334 333 333 333 334 332 330 329 327 326 327 327 328 329 328 326 325 324 322 322 322
348 337 335 339 341 340 339 340 338 336 336 337 339 341 341 341 341 340 338 337 337 337 336 336 335 335 335 335 334 334 335 335 334 334 334 334 334 334 333 333 333 333 332 332 333 333 332 330 328 328 327 327 328 329 329 327 325 323 322 321 321 321 321
344 337 335 337 339 339 339 338 336 335 336 337 339 340 340 340 340 339 338 337 337 336 335 335 335 334 335 335 335 335 335 335 334 334 333 332 332 332 331 330 331 332 332 331 331 332 331 329 328 327 327 328 329 328 326 323 322 321 321 321 321 321 320
337 335 336 337 337 338 339 338 337 336 336 336 337 338 338 338 338 337 337 337 336 336 335 335 335 335 335 335 335 335 335 334 334 333 332 330 329 328 326 326 329 332 332 330 329 330 330 328 327 326 328 329 328 325 322 321 321 320 320 320 321 320 320
333 334 337 338 337 337 338 338 337 336 335 335 334 333 334 335 336 336 336 336 336 337 336 336 335 334 334 334 334 335 334 333 331 330 329 327 325 325 325 326 328 331 332 331 330 329 329 327 327 327 329 329 325 322 321 321 321 320 320 320 320 320 320
335 337 338 338 336 335 335 336 337 335 333 332 330 329 329 331 333 335 336 336 336 336 336 335 333 332 332 332 332 331 329 327 326 326 326 324 322 323 326 326 326 327 328 328 328 328 327 327 326 327 326 324 322 321 321 320 320 320 320 320 321 321 320
336 338 338 337 335 333 333 335 335 333 330 328 328 327 327 328 329 331 332 333 334 333 332 330 329 329 329 328 327 326 324 323 324 324 323 322 321 323 325 325 324 323 323 324 324 324 324 324 323 323 322 321 321 321 320 319 319 320 320 320 320 318 317

ECMWFFLT1_925_thetae_009.txt.gz
Theta_e
347 348 349 350 351 351 351 353 354 355 355 356 356 356 357 358 358 358 358 357 356 357 357 356 356 357 358 359 361 360 359 359 358 356 357 359 359 358 355 352 347 342 340 340 340 340 339 338 337 338 339 339 339 337 333 331 334 336 334 333 333 334 334
347 347 348 349 350 351 352 354 355 356 356 356 356 356 357 358 359 358 358 357 356 356 357 357 356 356 356 358 360 360 359 360 358 356 358 359 359 358 355 352 347 342 340 339 339 339 338 337 337 337 338 339 338 336 333 331 332 335 335 333 333 333 332
347 347 347 349 350 352 352 354 356 356 356 356 356 356 357 359 358 357 357 358 358 357 358 357 356 356 356 357 358 359 360 359 356 355 358 360 360 357 354 351 346 341 339 339 339 338 338 337 336 336 337 338 338 335 333 332 332 333 334 333 334 334 333
348 347 347 348 351 353 353 354 355 356 356 356 357 357 358 358 357 356 357 358 358 359 359 358 357 357 356 356 357 359 359 357 354 354 357 359 359 357 354 349 344 340 339 338 338 338 338 337 336 335 336 337 337 335 333 332 332 333 334 333 334 335 334
349 348 348 348 350 351 352 353 355 356 356 356 357 358 359 358 357 358 358 358 359 358 358 358 358 358 356 357 358 359 357 355 354 354 356 359 358 355 352 347 342 340 339 338 337 337 337 337 336 335 335 336 337 335 333 332 331 333 333 334 335 336 336
349 349 350 348 348 350 351 351 354 356 355 356 357 358 359 358 359 359 359 359 359 359 359 358 358 357 356 357 358 357 355 355 355 354 356 358 356 354 350 344 341 339 338 337 335 335 337 338 337 336 335 336 337 336 334 331 331 333 334 334 335 336 336
349 350 350 349 348 349 349 350 353 355 355 357 358 358 358 358 359 359 359 360 359 359 359 359 358 357 356 356 356 356 356 356 355 355 356 356 355 353 347 341 339 337 336 335 334 335 337 338 338 336 335 336 336 336 333 330 330 333 335 335 335 335 335
348 351 350 350 349 348 348 350 352 354 356 357 358 359 358 358 359 359 359 360 359 360 360 359 359 358 356 356 355 355 356 355 354 354 354 354 353 349 343 339 338 336 335 334 333 336 338 338 338 336 336 336 335 335 332 328 330 333 335 335 335 335 334
347 351 350 349 348 347 349 351 353 356 357 359 359 360 359 358 359 359 359 360 360 360 360 359 360 358 357 356 355 355 355 353 353 352 351 350 347 344 340 339 338 335 334 333 333 336 337 337 337 335 336 335 334 333 331 328 331 334 335 335 334 334 334
348 351 351 350 348 350 351 351 356 358 359 361 361 360 360 359 360 359 359 360 359 360 360 359 360 359 357 356 356 355 354 352 350 347 346 345 343 342 340 339 337 335 334 333 333 335 336 336 336 335 335 334 331 331 330 330 332 335 336 335 333 332 333
350 352 352 352 351 354 353 353 357 359 360 362 360 360 361 360 361 360 360 360 359 359 360 360 360 359 357 357 355 354 353 350 346 344 346 346 343 342 341 339 336 335 334 334 333 333 333 334 335 334 333 332 330 330 330 331 334 336 336 335 333 331 330
350 353 353 353 353 355 356 356 358 359 361 362 360 360 361 360 361 360 360 361 360 359 360 360 360 359 358 357 355 354 351 346 343 345 348 347 344 343 342 339 336 335 334 334 332 332 332 333 334 333 332 330 329 329 330 332 335 335 335 334 331 330 330
350 351 352 353 353 355 357 359 359 359 361 361 359 360 361 361 360 360 361 361 360 359 360 360 360 359 358 357 355 353 348 344 343 346 348 347 344 344 343 340 337 335 334 333 332 332 332 332 332 332 331 329 328 328 330 333 335 335 334 333 331 329 329
349 349 350 352 353 355 357 358 359 359 360 361 360 361 361 360 360 361 361 361 360 360 360 360 360 360 358 357 355 352 347 344 345 347 347 346 343 343 342 340 337 334 332 332 331 332 331 330 331 332 330 330 330 329 330 332 334 334 334 333 333 331 329
347 347 348 350 352 355 357 358 359 359 359 360 361 361 361 361 361 362 361 361 361 360 360 360 361 360 359 357 354 351 348 345 344 345 345 344 343 340 339 339 338 334 330 330 330 332 332 330 331 332 331 332 332 330 330 332 333 333 334 335 335 334 331
347 347 347 350 351 353 355 356 358 358 359 360 361 361 361 361 361 362 361 361 361 361 360 360 361 360 359 357 354 352 349 346 343 343 343 343 342 340 338 338 337 333 330 330 331 332 332 330 331 333 334 334 333 331 330 331 332 333 335 336 335 334 331
347 348 348 349 351 351 352 355 356 357 358 359 361 361 361 361 362 361 360 360 360 360 360 360 361 360 359 358 355 351 348 346 343 342 342 341 341 339 337 337 337 333 329 330 332 333 333 333 333 335 335 335 335 333 330 331 332 335 336 335 332 330 330
350 351 350 351 352 351 351 352 353 355 356 357 359 360 360 361 361 361 360 360 360 360 360 360 360 360 359 359 356 351 348 346 344 343 342 341 340 339 337 336 336 334 330 331 333 332 332 334 336 336 336 336 336 335 333 331 333 336 335 332 330 330 330
352 351 352 353 352 351 350 349 350 352 354 355 357 358 359 359 360 359 360 360 360 360 360 360 360 360 360 359 356 351 348 345 344 343 342 341 339 339 338 337 335 334 333 333 334 332 331 335 336 336 336 336 335 336 335 333 335 336 335 332 331 332 332
352 351 351 351 349 348 349 349 349 351 352 354 354 355 356 357 357 359 360 360 361 360 359 360 360 360 360 358 356 352 347 344 344 343 341 340 339 339 339 337 337 336 335 335 336 335 335 333 328 331 336 335 332 334 335 333 335 337 336 335 333 332 333
349 349 349 349 348 349 351 351 350 351 351 351 351 352 355 356 357 358 359 359 360 360 360 360 359 358 358 357 355 351 347 345 343 341 341 340 339 339 339 337 336 336 335 336 336 335 334 327 321 328 335 332 328 333 334 333 334 337 338 338 335 333 334
345 345 345 348 349 351 352 351 349 350 351 350 350 352 353 354 356 357 357 358 359 359 359 359 359 358 357 356 354 351 347 345 343 342 341 340 339 339 338 337 336 335 335 335 333 331 330 326 324 330 336 333 331 334 334 333 335 336 337 338 336 334 334
342 342 344 347 348 350 351 351 350 350 351 351 351 352 353 353 355 355 356 357 358 358 358 358 358 357 355 355 353 350 347 345 343 342 341 340 340 340 339 338 337 336 334 332 328 326 324 324 327 333 337 336 334 332 332 333 334 334 336 337 336 335 334
342 343 347 348 348 350 351 352 352 351 351 352 352 352 353 353 354 355 356 357 357 357 357 357 358 357 355 354 353 350 348 346 344 343 342 341 341 341 339 339 337 334 332 329 325 323 322 324 328 331 333 335 334 331 332 334 335 334 336 336 335 334 334
344 345 347 349 350 352 351 352 352 350 351 352 351 351 352 353 354 356 357 357 356 356 356 356 356 355 354 353 351 349 348 346 344 344 343 342 341 339 338 337 334 332 330 326 324 324 326 327 327 327 330 334 335 334 334 335 335 336 336 335 335 334 332
347 346 348 350 351 352 352 352 352 351 351 352 349 350 351 353 355 356 355 354 353 354 354 354 354 353 352 351 350 348 347 346 345 344 343 341 339 337 335 334 333 331 328 326 327 330 331 330 330 331 333 336 336 335 336 335 334 334 334 333 333 333 331
348 348 349 350 351 351 351 351 352 351 351 350 349 349 350 352 354 353 352 351 352 352 351 350 349 348 348 348 347 347 346 345 344 343 341 339 337 335 332 331 331 330 329 329 332 333 332 333 334 336 337 337 337 336 336 334 333 332 332 332 332 332 330
346 347 348 349 349 350 350 350 350 349 348 349 349 349 349 350 351 351 350 350 350 348 346 345 345 345 345 345 345 346 345 343 343 342 339 337 335 332 330 329 329 329 330 332 334 333 333 334 336 336 336 336 335 334 332 332 332 331 331 331 332 331 330
345 345 345 347 347 347 349 349 348 347 347 347 347 348 348 348 349 349 349 349 347 345 343 343 343 343 344 344 344 344 343 342 341 339 337 335 332 330 329 329 329 329 331 332 334 335 336 337 336 335 334 334 333 332 332 331 330 329 329 330 330 329 328
346 344 343 345 345 345 346 346 346 345 345 345 346 346 346 347 347 347 348 346 343 342 342 343 342 343 343 343 344 343 341 340 338 337 336 335 332 331 331 331 331 332 333 334 334 336 338 338 336 334 334 333 332 333 332 331 329 328 329 329 329 328 327
346 345 344 345 345 345 345 345 345 345 344 344 344 344 345 345 345 346 346 344 341 341 342 342 342 343 343 343 343 342 340 338 337 335 334 333 331 332 333 333 333 334 334 334 336 337 337 336 334 333 333 332 331 331 330 329 328 328 328 329 329 328 326
344 346 347 346 346 346 345 346 346 345 345 344 343 343 344 344 344 345 344 341 340 341 341 341 342 343 343 343 341 340 339 338 336 334 333 331 332 332 332 332 333 334 334 336 338 337 336 334 332 332 332 330 330 330 330 329 327 327 327 329 328 326 324
342 344 345 345 345 346 346 346 346 345 346 345 343 343 344 343 344 344 342 340 340 340 340 341 342 342 342 341 340 339 338 338 336 335 334 334 334 334 333 333 335 336 337 338 338 336 334 333 332 332 331 330 331 331 330 329 327 327 327 328 326 324 322
343 344 344 343 343 344 347 348 347 346 348 347 344 342 343 343 343 342 341 340 340 339 340 340 341 342 341 340 339 338 338 337 337 336 336 337 337 336 336 337 337 337 337 336 336 335 334 333 333 332 332 332 333 332 330 329 329 328 327 326 324 322 321
346 346 345 343 342 342 345 347 347 347 348 346 342 341 342 341 340 340 340 340 339 339 339 340 340 341 340 340 339 338 337 337 336 336 337 337 337 336 336 336 336 335 335 334 334 333 333 333 334 334 333 334 333 332 331 332 331 328 324 322 321 321 321
346 347 346 344 342 342 343 344 344 344 343 341 340 340 340 339 339 339 340 339 339 339 339 340 340 341 340 340 339 339 338 337 336 336 335 335 334 333 332 331 331 332 333 332 331 330 330 331 331 332 332 332 330 329 331 331 329 325 321 321 321 320 320
344 345 344 343 343 344 344 343 343 342 341 339 338 338 338 338 339 339 339 339 338 339 340 340 340 340 340 339 339 338 338 337 337 336 335 333 332 330 328 326 326 328 329 331 331 330 329 328 329 329 329 328 327 328 329 328 324 321 320 320 319 319 319
339 341 341 341 342 343 343 343 343 343 341 338 336 336 336 337 338 338 339 338 338 339 340 339 339 340 340 339 338 338 337 337 336 335 334 333 331 329 327 326 325 325 325 327 327 327 326 326 327 327 327 327 327 327 326 324 321 320 320 319 319 319 320

ECMWFFLT1_925_thetae_012.txt.gz
Theta_e
354 353 353 353 354 354 354 355 357 358 357 359 361 361 361 361 361 361 363 364 365 366 367 368 368 367 366 366 365 364 363 360 359 360 360 361 361 360 360 359 359 357 356 355 353 352 351 350 349 347 345 344 343 343 341 339 338 339 339 339 339 338 337
353 353 353 353 354 355 355 357 358 358 357 358 360 360 360 361 362 362 363 364 366 366 367 368 368 367 367 367 365 364 362 360 360 360 360 361 361 362 361 360 359 358 356 355 353 353 352 350 349 348 346 344 343 343 341 339 338 338 338 339 339 338 337
352 353 354 354 355 357 357 357 359 359 358 358 359 360 360 361 362 362 363 364 366 366 367 368 368 368 367 367 366 365 363 361 360 359 359 360 361 361 361 360 359 358 356 355 354 352 351 349 349 347 345 343 342 342 341 339 338 338 337 338 338 337 338
353 353 353 355 356 357 358 357 359 359 358 358 359 359 361 361 363 363 363 364 366 367 367 367 368 368 367 367 366 365 363 362 361 360 360 360 361 361 361 361 360 358 356 355 353 352 350 348 348 346 345 343 342 342 341 339 338 338 336 337 337 337 337
353 352 353 354 355 357 358 357 359 361 358 358 359 359 361 362 363 364 363 364 365 366 366 366 367 368 367 367 367 365 364 363 362 361 361 360 361 361 361 361 360 358 356 355 353 351 349 348 347 345 344 343 342 341 341 340 338 337 337 338 337 337 336
352 353 353 353 353 356 358 356 358 360 358 357 358 360 361 361 362 363 363 364 364 365 366 366 367 368 367 367 367 366 365 364 363 361 360 360 361 361 361 360 359 357 355 353 351 350 349 347 345 345 344 343 342 342 341 340 338 337 338 338 338 337 336
352 354 354 353 353 354 355 356 357 359 359 357 358 360 360 359 361 361 362 364 363 364 365 366 366 367 368 368 367 367 366 365 363 361 360 360 360 361 361 359 358 356 354 352 350 349 348 346 344 344 343 343 342 342 341 340 339 337 337 338 339 338 337
352 355 354 353 353 352 353 354 356 357 359 358 358 360 360 358 359 359 360 362 362 363 363 363 365 367 368 368 367 367 366 365 363 361 360 360 360 361 360 358 357 355 354 351 349 348 346 345 343 342 343 343 343 342 341 341 340 338 337 338 339 339 338
351 356 356 352 351 351 353 354 356 358 359 359 359 360 360 359 359 359 359 360 360 362 361 360 362 366 368 368 367 367 366 364 363 361 359 359 360 360 359 357 356 355 354 351 349 347 345 344 343 343 344 344 342 342 342 341 341 339 337 338 339 339 337
353 357 358 354 351 351 351 353 356 359 360 362 361 360 361 361 360 359 359 358 359 361 361 360 361 364 367 368 367 366 366 364 362 361 359 359 359 359 358 357 356 355 353 349 347 347 344 342 344 344 345 345 343 342 342 341 341 339 337 339 340 339 338
354 358 359 357 353 353 353 355 358 360 362 364 362 362 363 363 362 360 360 360 358 359 360 361 360 362 366 367 366 366 366 364 362 361 360 359 358 357 356 355 353 353 353 348 345 344 341 340 342 344 345 344 343 343 343 342 340 338 337 339 340 340 338
356 359 361 358 356 356 356 359 361 362 364 365 364 363 364 364 363 361 361 360 359 358 360 361 361 361 364 366 366 365 365 364 362 361 359 357 356 355 354 352 349 350 352 348 345 341 338 336 338 342 344 342 341 343 343 340 339 339 340 340 340 340 339
358 359 360 359 359 359 361 363 363 363 365 366 365 364 365 365 363 362 362 362 360 360 361 362 362 362 363 365 366 365 365 365 363 360 357 356 354 352 350 349 349 349 350 350 347 340 336 336 336 338 342 342 341 341 341 339 339 340 339 338 338 340 340
358 358 359 359 360 362 364 364 365 365 365 366 366 364 365 365 363 363 364 363 362 361 361 363 363 364 364 364 365 365 365 365 362 359 356 354 350 349 349 349 347 347 349 350 349 342 337 337 337 336 339 341 341 339 338 337 337 335 334 334 335 337 338
357 356 358 359 360 363 365 365 367 367 365 367 366 365 365 365 363 364 364 365 365 363 362 363 364 365 365 365 365 366 365 364 360 357 355 351 348 348 349 348 346 346 347 348 347 344 340 339 337 336 337 339 339 337 334 332 330 329 331 332 334 335 336
356 356 357 358 361 362 364 365 367 367 366 366 366 365 365 364 364 365 365 365 365 364 363 364 365 366 366 366 366 365 364 361 357 356 354 350 347 348 348 347 346 346 346 344 343 341 339 339 338 336 336 337 337 335 333 329 326 326 329 332 333 333 334
356 357 356 358 360 362 364 364 366 366 365 366 366 366 365 366 366 366 364 364 365 365 364 364 366 367 366 366 366 364 363 360 357 356 354 349 348 349 349 347 345 345 343 342 341 339 339 340 339 337 337 337 336 334 332 330 326 323 326 331 332 332 333
358 359 359 359 360 362 362 363 365 366 364 364 366 367 366 367 368 366 365 364 364 365 365 364 366 367 367 366 365 364 363 360 357 356 352 349 348 349 349 347 344 343 343 342 341 341 340 341 340 339 338 336 336 334 331 329 326 322 324 330 331 330 331
360 360 360 360 361 362 361 360 362 364 365 364 366 366 366 368 368 367 365 365 364 364 364 365 366 367 368 368 366 365 364 360 358 356 352 349 348 348 348 346 344 344 344 343 343 341 340 340 340 339 338 337 337 334 330 328 325 321 325 330 328 325 328
359 360 360 359 359 359 360 360 362 363 365 365 364 365 366 366 366 367 367 365 365 365 364 365 366 367 368 368 367 365 363 360 358 355 353 350 348 347 347 346 346 346 345 344 343 341 340 339 339 340 339 336 334 332 331 330 326 323 328 331 325 324 329
357 359 358 360 360 359 360 361 360 362 364 363 362 363 364 365 366 367 366 365 365 365 365 366 366 366 368 368 367 365 363 360 358 356 354 351 349 347 347 346 347 347 345 344 343 342 341 339 340 342 339 333 331 333 334 330 325 327 330 327 322 326 332
350 352 354 358 359 360 361 359 357 361 362 361 360 362 363 364 363 362 362 362 364 366 366 366 367 367 368 367 366 364 362 360 359 357 355 352 350 348 347 347 348 346 344 344 343 342 341 340 341 341 338 335 334 333 331 327 325 328 329 324 322 327 331
345 347 350 353 356 358 360 358 357 359 359 359 360 360 360 359 358 358 359 360 364 367 365 366 367 367 367 367 365 363 361 360 359 357 355 353 351 349 348 348 348 346 345 344 342 341 341 341 340 338 336 336 334 329 328 329 327 326 328 326 325 328 329
343 344 347 350 353 357 359 358 357 357 356 356 356 355 356 356 356 358 360 361 364 365 364 365 367 367 367 367 365 362 360 360 359 357 355 354 352 350 349 348 347 346 345 343 342 341 340 339 337 335 334 334 333 330 331 331 325 322 327 329 326 327 329
344 346 348 349 352 355 357 356 355 354 353 353 355 355 356 356 357 361 363 362 361 362 363 364 366 367 367 366 364 362 359 358 358 356 354 354 352 350 349 348 346 344 343 341 339 338 337 334 332 330 331 333 335 334 333 332 327 325 328 328 325 326 330
349 350 351 352 354 357 357 356 356 355 356 358 359 359 358 359 361 364 364 362 360 361 364 365 366 367 365 364 363 361 358 357 356 355 353 353 352 350 349 347 345 343 341 339 337 334 333 330 327 327 330 333 335 336 335 335 334 330 327 324 323 325 329
352 353 353 354 357 358 357 357 358 359 361 362 362 361 360 362 365 364 363 362 362 362 364 365 365 365 363 363 362 360 357 355 354 353 353 351 350 348 347 345 344 341 339 337 335 332 330 329 328 330 332 333 336 337 336 335 334 331 327 324 325 329 331
353 354 355 356 357 356 356 358 359 359 360 360 360 360 362 363 364 363 362 362 362 362 362 363 363 362 361 361 359 356 355 353 352 352 350 348 347 346 344 342 341 339 337 336 335 333 332 332 331 332 333 333 335 335 334 333 334 334 331 329 331 333 332
354 354 354 355 355 355 357 358 357 357 357 356 357 358 360 361 362 362 362 362 361 359 359 359 359 359 358 358 355 353 351 350 350 349 346 344 344 343 341 339 338 337 337 336 336 335 335 335 334 333 333 334 335 335 334 335 336 335 334 333 334 333 331
352 351 351 351 353 354 356 357 357 357 357 357 357 358 359 360 361 361 360 359 356 354 355 356 357 356 356 354 352 350 348 347 347 345 343 342 341 340 339 338 337 337 337 336 337 337 336 335 335 334 333 335 337 337 335 335 334 333 333 334 333 331 330
348 348 350 351 353 353 353 354 356 355 356 357 356 356 356 356 357 358 357 354 352 352 354 355 355 355 353 352 350 348 346 345 344 343 341 340 339 339 338 336 336 337 337 337 337 336 335 335 335 333 333 337 339 337 334 333 332 332 333 333 331 330 329
350 349 351 352 352 352 351 352 353 353 355 356 355 354 354 354 356 358 356 353 352 353 354 354 354 353 351 349 347 345 344 344 343 341 340 339 338 338 336 335 335 336 336 336 336 334 334 335 335 334 335 338 339 336 334 333 332 331 332 331 329 329 329
351 352 354 355 355 352 348 349 351 351 352 353 353 353 353 355 357 356 353 352 352 353 353 353 352 350 349 347 345 344 343 343 341 341 340 339 337 336 336 335 335 335 335 335 334 335 335 336 337 337 337 337 336 335 334 332 330 330 331 330 328 328 328
350 351 353 355 356 355 349 348 349 350 352 354 353 351 352 353 354 352 351 350 351 352 353 352 350 349 347 345 344 343 343 342 341 340 339 338 338 337 337 336 335 336 336 335 335 335 336 338 339 339 337 336 335 335 334 333 332 333 333 332 329 328 327
348 349 350 352 354 354 353 352 352 353 354 355 354 352 352 351 350 349 349 349 350 352 352 350 349 348 346 344 343 342 341 341 340 339 338 339 338 337 336 336 336 336 336 336 336 336 336 338 340 337 336 336 335 335 335 334 333 334 334 332 330 328 327
348 348 349 348 349 350 351 352 351 351 351 352 352 351 349 348 348 347 347 348 349 351 350 349 348 347 345 344 343 342 341 341 340 340 339 339 338 336 335 334 336 336 335 334 336 337 337 337 337 336 334 334 334 335 335 333 333 334 333 330 328 326 324
348 348 347 346 347 349 350 349 348 348 348 348 348 347 346 347 347 346 346 347 348 349 349 348 348 346 344 343 342 341 341 340 340 340 340 339 338 337 335 334 333 334 334 334 334 335 333 332 332 332 332 332 333 333 332 332 334 333 329 326 323 321 320
345 347 346 345 347 349 350 350 349 349 349 347 346 345 345 346 346 347 347 348 348 349 349 348 347 345 344 343 342 341 340 340 339 339 340 339 338 336 336 335 333 331 330 331 332 332 331 329 329 329 329 330 331 330 328 330 331 328 324 322 321 320 319

ECMWFFLT1_925_thetae_015.txt.gz
Theta_e
349 349 351 353 354 354 353 356 358 358 358 357 356 356 354 354 356 358 359 361 363 365 367 367 365 365 366 365 364 363 363 363 363 361 361 361 359 358 358 358 357 356 355 355 354 353 351 350 348 346 346 346 345 343 340 340 341 341 340 341 340 340 338
348 346 348 351 354 355 354 356 359 359 358 358 357 356 355 354 355 358 360 362 364 365 367 367 367 367 366 366 365 365 364 363 363 361 361 361 360 359 359 358 358 357 356 355 354 353 352 351 349 347 345 344 344 342 342 342 342 341 341 341 340 340 338
351 349 348 350 354 357 355 355 358 360 358 359 358 357 356 355 356 358 359 361 364 366 367 368 368 368 368 367 366 365 365 363 363 362 361 360 360 359 359 359 359 357 356 355 354 353 352 351 349 348 345 344 344 343 343 343 342 342 341 341 340 339 338
350 352 351 352 355 358 357 355 357 360 359 357 358 358 357 357 357 358 358 359 364 367 368 367 368 369 368 368 368 367 366 365 364 363 361 360 360 360 360 359 359 357 355 354 354 353 352 352 350 348 346 345 345 344 344 343 342 342 341 340 340 339 338
347 350 350 352 356 358 358 356 356 359 359 357 358 360 359 357 358 359 358 360 364 367 367 366 367 369 369 369 369 367 366 366 365 364 362 361 360 360 361 361 359 357 354 352 355 355 354 352 350 348 347 346 346 344 344 343 342 342 341 339 339 339 338
343 348 351 353 354 357 357 357 357 359 358 356 358 360 360 358 358 359 358 359 363 365 366 365 364 367 370 370 368 367 367 366 366 365 363 361 361 361 362 361 360 358 354 353 355 356 355 353 350 348 347 347 345 343 343 342 341 341 341 339 339 339 338
340 348 353 353 354 356 357 357 358 359 358 355 356 359 359 358 358 359 358 359 360 361 364 363 361 364 369 370 368 368 368 367 368 366 363 362 362 362 362 361 361 359 356 356 356 357 356 354 351 349 347 346 344 342 343 342 341 340 340 339 339 339 339
340 349 353 355 354 354 356 358 358 359 358 355 353 357 359 356 357 357 355 357 357 356 360 361 359 362 368 370 369 369 369 368 368 367 365 364 362 362 362 361 361 360 358 358 358 357 356 354 350 348 347 346 344 343 342 342 341 340 339 339 338 339 339
345 354 356 355 351 351 355 358 359 361 360 357 354 357 358 354 352 353 352 353 354 354 354 356 356 360 367 371 370 369 370 368 368 367 365 363 362 362 361 360 361 360 359 360 358 356 355 353 350 347 346 346 344 343 343 343 342 341 339 339 338 338 339
349 354 358 357 352 351 354 356 361 364 364 363 359 358 358 353 349 349 350 350 353 352 351 352 353 357 366 371 370 370 370 369 368 367 365 364 362 360 358 358 360 360 359 359 357 354 353 352 350 347 345 346 344 342 344 344 343 341 340 340 339 339 339
350 352 357 361 356 354 355 358 366 369 370 370 363 358 359 355 349 348 349 349 350 352 351 350 350 354 365 371 369 369 370 369 368 367 365 363 360 359 358 357 358 360 359 358 356 354 352 351 350 347 345 346 345 344 345 344 342 342 341 340 340 340 340
353 356 363 365 359 357 359 365 370 372 374 372 364 360 362 358 350 347 349 349 349 350 350 350 350 351 360 368 369 368 370 369 367 367 365 362 358 358 358 356 356 359 359 357 356 355 353 351 350 348 346 344 345 346 346 343 342 343 343 341 340 339 340
361 360 366 365 361 360 364 369 371 371 371 370 364 362 364 360 355 349 349 350 350 349 351 352 351 350 356 365 368 368 369 370 367 367 366 362 358 357 358 357 354 355 358 357 355 355 354 351 350 348 345 345 346 347 345 343 342 344 344 341 339 339 341
366 364 365 365 362 363 366 367 369 370 368 367 366 365 365 363 360 356 353 353 352 350 350 352 354 353 354 361 366 369 369 369 368 368 367 363 359 358 359 357 352 354 358 356 354 354 353 352 351 348 346 347 348 347 344 343 343 344 344 340 338 340 341
355 360 364 366 365 365 366 366 369 370 368 368 369 367 366 365 364 362 358 359 357 353 350 352 356 357 356 359 366 369 370 370 369 369 367 364 363 362 360 358 355 357 357 354 353 353 352 352 351 349 348 348 348 346 344 344 344 344 342 340 340 341 341
338 346 357 365 367 367 366 367 370 370 370 370 369 368 368 367 366 366 363 362 361 356 352 353 358 361 361 362 367 369 371 371 370 368 367 365 364 363 362 360 358 358 356 354 354 353 352 352 351 349 349 348 348 346 343 343 344 342 340 341 341 341 340
335 337 342 354 365 368 368 369 370 371 371 370 369 369 370 369 368 367 365 364 364 360 356 355 360 365 365 365 368 371 371 371 368 367 365 364 364 363 362 360 359 358 356 355 355 353 352 351 350 350 349 348 348 346 343 344 344 340 340 340 338 339 341
336 338 337 343 358 370 370 368 371 372 370 368 369 370 370 370 369 367 365 364 364 362 359 359 364 368 368 368 371 371 371 369 368 366 364 363 362 360 359 358 359 358 356 355 354 353 352 351 350 350 349 348 348 346 345 345 341 340 341 338 335 338 340
336 336 337 338 352 367 370 368 370 372 370 369 370 371 370 370 370 368 365 365 365 364 362 362 368 370 371 372 372 371 371 369 368 366 363 362 360 359 358 357 358 359 356 355 354 352 352 351 349 349 349 347 347 345 345 343 341 341 341 333 330 336 337
337 335 336 341 349 358 366 369 370 371 373 372 370 370 370 369 369 368 366 365 366 366 364 364 369 372 372 372 371 370 370 368 367 364 363 362 359 359 359 358 359 359 357 355 354 352 352 351 349 349 348 347 346 344 342 342 341 340 335 327 326 331 334
339 337 339 348 351 353 362 370 371 371 373 371 368 368 368 367 368 367 365 364 366 367 366 366 370 372 372 371 370 370 369 368 366 363 362 360 359 359 359 359 359 359 357 355 354 352 351 350 349 349 347 347 346 342 340 341 340 335 328 324 325 328 331
338 341 344 351 355 359 367 370 368 370 373 369 367 368 367 366 368 366 364 365 366 367 368 368 370 372 372 370 369 369 369 367 365 363 361 360 359 358 358 358 358 358 357 355 354 353 352 350 349 348 347 346 344 341 340 339 336 330 325 322 323 327 331
335 339 343 349 355 363 369 368 367 371 371 368 366 367 367 367 367 365 364 366 368 369 370 370 371 372 371 368 366 369 369 366 364 362 361 360 359 358 357 356 356 357 356 356 355 353 352 350 349 347 346 345 343 340 339 337 332 327 323 321 322 326 329
337 337 338 346 355 363 368 367 367 369 368 367 365 365 366 366 366 366 366 367 369 369 369 371 371 371 370 368 365 367 367 364 362 361 360 360 358 357 355 354 354 354 355 355 354 353 352 350 348 346 345 344 342 339 337 334 330 324 321 320 321 325 328
341 338 339 346 354 361 367 366 365 366 367 365 364 366 367 367 366 366 366 367 368 367 368 371 371 370 369 367 365 365 364 361 361 361 361 360 358 357 355 354 353 354 353 353 352 351 350 347 345 344 343 342 341 338 335 333 330 324 322 321 322 326 329
343 340 341 346 353 361 365 364 364 366 365 363 365 367 366 364 363 364 365 367 368 367 369 370 370 369 368 366 364 363 361 361 362 361 359 359 359 357 355 354 354 353 352 351 349 347 346 344 342 341 341 339 337 334 333 332 331 327 323 321 322 328 331
347 346 344 345 352 360 363 362 364 364 362 364 366 364 361 362 364 365 367 367 367 367 369 369 369 369 367 364 362 361 359 360 360 359 357 357 357 356 354 354 354 353 351 348 344 342 341 340 339 339 337 336 335 333 331 332 332 330 326 323 324 328 329
351 351 351 355 359 362 363 363 363 360 359 361 361 358 360 365 366 366 365 365 366 368 369 370 369 366 364 363 361 359 358 357 357 356 355 354 355 355 353 353 351 351 349 345 341 338 337 336 336 335 334 334 334 334 334 334 334 333 330 326 325 324 325
354 355 358 360 360 360 360 360 360 360 360 360 360 362 366 368 368 367 365 366 368 369 370 370 367 364 363 362 359 358 357 356 355 354 353 353 353 353 351 350 348 347 345 342 338 337 336 335 334 334 334 333 333 335 335 335 335 334 331 328 327 325 326
359 359 359 359 358 359 362 363 364 364 364 363 364 367 368 369 370 369 368 369 369 368 369 368 366 364 362 360 358 357 356 354 352 352 351 352 351 350 348 347 345 343 342 340 338 337 337 336 335 335 335 335 334 335 336 335 336 336 334 333 332 331 331
359 358 357 357 358 361 363 364 365 364 364 365 366 367 367 369 370 370 369 368 366 366 366 365 364 363 361 358 356 354 352 352 351 348 348 348 348 347 346 344 342 341 341 340 338 338 339 338 337 337 337 336 336 337 337 336 336 336 336 334 333 333 332
358 357 357 357 359 361 360 361 361 362 364 365 364 366 367 368 368 367 365 364 363 363 362 361 360 360 358 355 353 350 349 350 347 345 345 345 344 344 343 342 341 341 341 340 339 340 340 339 338 338 337 336 337 337 337 336 336 336 335 333 332 332 332
354 353 354 354 355 355 355 355 354 354 357 357 357 358 360 361 362 361 360 361 362 362 361 360 359 357 355 353 350 348 348 347 345 343 343 342 342 341 340 340 340 340 340 340 339 339 340 339 337 337 336 336 336 337 336 336 336 336 335 332 330 331 331
356 355 354 353 352 352 352 353 352 352 354 354 353 353 356 357 358 357 358 360 361 361 360 358 356 354 352 350 349 348 346 345 344 342 341 341 340 340 339 339 339 339 339 340 339 339 338 337 337 337 335 335 335 336 337 338 337 337 336 333 332 332 332
354 355 356 357 357 356 357 359 359 358 358 356 354 353 353 355 355 355 357 358 359 359 357 355 353 352 350 348 347 346 344 343 343 341 340 341 340 338 337 337 338 339 338 338 339 339 337 337 338 337 335 334 335 337 338 338 337 336 334 334 333 332 331
347 348 351 353 353 353 355 356 357 358 357 355 353 352 351 351 351 352 355 357 357 356 355 353 352 350 348 347 346 345 343 343 342 340 340 341 339 336 334 334 336 338 338 337 337 336 336 337 337 336 335 336 336 337 337 337 336 335 333 334 333 332 330
347 347 349 351 351 352 352 352 352 353 352 351 350 349 348 348 348 350 353 356 356 355 353 352 350 348 347 346 345 344 343 342 341 340 340 341 339 337 335 334 334 335 335 335 335 335 336 336 336 335 335 336 336 336 336 336 336 334 334 334 333 330 329
345 346 348 350 353 355 354 353 353 351 350 349 348 347 347 347 348 350 353 354 354 353 352 351 350 347 346 345 344 343 343 342 340 340 341 340 339 337 337 337 335 334 333 334 335 336 336 335 334 334 334 334 334 335 334 335 335 333 333 334 332 329 327

ECMWFFLT1_925_thetae_018.txt.gz
Theta_e
351 352 352 352 353 353 355 358 358 358 359 360 359 359 358 358 359 361 362 363 364 365 366 365 365 365 365 365 365 365 364 363 362 362 362 362 360 359 359 358 359 358 357 357 355 353 351 350 349 349 348 348 347 346 344 341 340 340 340 340 340 340 339
351 349 349 348 351 354 356 358 358 358 358 360 360 359 358 357 359 361 362 363 364 365 366 366 366 366 366 365 365 365 364 363 363 362 363 363 361 360 359 358 358 357 357 357 355 353 351 350 349 348 348 348 347 345 343 342 340 340 341 341 340 340 339
350 349 348 348 351 357 358 357 358 359 357 358 359 358 358 357 358 361 362 363 365 366 367 367 366 366 366 366 365 365 365 364 364 363 363 363 362 361 359 358 358 357 357 356 355 354 352 351 349 348 348 348 346 344 343 342 341 340 341 341 341 341 340
351 348 349 351 355 360 360 357 357 359 357 357 357 357 358 358 359 360 361 363 365 366 368 368 367 366 366 367 366 366 365 364 364 364 363 362 362 361 360 359 358 358 357 357 356 355 354 352 350 349 348 347 346 344 343 343 342 341 341 342 341 340 340
352 350 350 351 354 359 360 357 358 359 358 357 357 358 359 359 359 359 360 362 364 365 368 368 368 367 366 366 366 366 366 365 365 365 363 361 361 361 360 359 359 359 359 357 356 355 354 353 352 350 348 347 345 345 344 343 343 342 342 342 342 340 340
354 352 353 352 349 354 358 355 354 356 357 358 358 358 359 359 358 357 359 361 362 363 366 369 368 367 366 366 366 366 366 365 365 365 363 361 360 360 360 359 359 359 358 358 356 355 354 353 352 351 349 347 346 345 344 344 344 343 342 342 341 341 340
353 354 356 355 350 350 352 352 352 354 358 359 359 359 359 358 357 356 357 359 361 364 366 368 369 368 367 366 366 366 367 367 366 365 364 361 360 360 360 359 358 357 358 357 356 354 354 353 352 352 350 347 347 347 346 345 344 343 343 342 341 341 340
353 356 356 354 350 348 350 352 354 355 357 358 359 360 358 358 357 355 356 359 361 364 366 367 368 367 366 366 366 366 366 367 366 365 364 362 361 360 360 360 358 356 356 356 354 353 354 354 353 352 351 349 347 347 346 345 344 344 344 342 340 340 340
351 355 355 351 346 346 350 354 356 357 356 357 359 360 360 359 357 355 355 358 360 362 365 366 367 367 367 366 366 365 366 367 367 366 364 362 362 361 360 361 361 358 357 356 354 352 354 355 354 353 351 349 348 347 346 345 344 343 343 342 340 339 338
355 357 357 352 348 350 352 355 360 360 358 360 361 361 361 359 357 356 356 357 358 359 363 366 365 365 367 367 366 366 366 367 368 367 365 363 363 362 360 361 362 361 359 358 355 353 354 356 356 354 352 350 348 347 345 344 343 343 343 342 340 338 336
361 364 363 358 357 358 356 359 365 366 365 365 363 361 362 361 359 357 356 356 356 356 360 363 362 362 366 367 366 366 367 367 367 367 366 364 363 362 361 361 361 361 360 359 357 356 356 357 357 355 353 350 349 347 345 343 344 343 342 342 341 338 336
365 372 371 366 365 363 363 367 369 373 375 372 365 362 363 363 360 358 356 355 355 354 357 359 358 358 362 365 367 368 368 367 366 367 367 365 363 362 361 360 360 362 362 361 359 359 359 358 357 356 354 351 349 347 344 344 344 343 342 341 341 339 337
369 374 373 370 372 370 371 375 374 377 380 374 366 362 362 363 360 358 357 355 354 353 354 355 356 356 359 364 367 368 369 368 366 366 367 365 363 361 361 359 359 361 362 361 361 360 360 360 358 357 355 352 350 348 345 344 344 343 342 341 341 340 339
367 371 373 374 377 377 380 385 384 383 380 375 368 362 361 362 360 358 356 355 352 352 353 353 353 355 358 362 367 368 369 369 366 365 366 365 363 361 360 359 358 359 361 361 361 360 360 360 359 357 356 353 351 348 346 344 344 344 342 341 341 341 341
358 360 369 374 377 379 383 386 391 389 381 377 372 365 361 361 360 358 355 353 351 350 351 352 351 353 357 362 367 368 368 369 367 365 364 364 363 361 359 359 358 357 359 360 360 360 359 360 359 358 356 353 351 349 346 345 344 343 343 342 341 342 341
348 349 361 372 376 379 380 383 389 390 385 382 376 369 364 361 361 359 354 351 350 348 349 351 352 351 355 362 368 369 368 369 369 366 364 364 363 361 360 359 359 357 358 360 361 360 359 358 359 358 355 353 351 349 347 347 345 344 342 341 341 342 341
342 343 356 370 374 375 377 380 384 387 386 383 378 372 366 363 363 361 355 351 349 348 348 351 353 352 353 361 368 369 369 369 369 368 366 365 364 364 362 360 359 358 358 359 359 360 359 358 357 357 355 353 352 349 349 348 347 344 342 341 341 340 340
344 345 359 372 376 375 375 375 379 383 380 375 374 372 368 367 367 363 358 353 348 347 348 351 356 354 353 360 368 370 371 370 370 371 369 368 367 366 364 362 361 360 359 360 360 360 360 358 356 356 355 354 352 351 350 349 347 344 342 342 342 340 339
344 345 355 369 376 377 373 368 371 377 374 370 370 371 368 368 368 365 363 358 352 348 347 351 357 358 355 361 368 371 372 371 372 372 371 370 369 367 367 366 363 362 362 362 362 360 359 358 356 355 355 353 352 352 351 350 347 345 343 343 342 339 340
348 346 345 352 365 374 374 373 372 374 373 371 369 368 368 368 368 367 365 362 358 355 350 350 359 361 359 362 369 372 372 373 375 374 372 372 370 369 369 367 365 364 363 363 361 359 359 357 356 355 354 353 352 351 351 349 347 345 344 344 341 340 341
351 351 349 346 356 371 378 379 377 376 375 372 368 368 369 368 367 367 366 365 364 362 358 355 361 366 365 366 370 373 374 375 375 374 373 371 369 368 367 366 365 364 362 362 361 359 358 357 355 354 353 352 351 351 350 349 347 345 344 343 341 340 341
342 344 346 347 358 379 385 380 375 375 374 372 368 368 368 367 367 368 367 366 365 365 364 363 368 371 370 371 374 375 375 375 374 372 370 368 366 365 363 362 362 361 361 361 360 359 358 356 355 354 353 352 351 350 349 347 346 345 343 342 340 339 339
334 336 339 340 353 374 379 374 372 373 374 374 370 367 367 366 367 369 367 365 365 366 367 371 373 373 373 375 376 376 375 374 372 370 368 366 364 363 361 361 361 361 361 361 360 359 357 356 355 354 353 352 351 349 347 345 344 344 342 341 340 338 337
331 335 336 336 349 366 369 369 370 371 374 375 371 368 368 368 369 370 367 366 367 365 368 374 375 374 375 376 376 374 373 372 370 368 366 364 363 362 360 360 360 361 361 360 359 358 357 356 355 353 352 351 349 348 346 343 342 342 341 340 339 337 334
330 331 333 335 347 360 364 365 367 369 374 376 372 369 370 369 369 369 367 368 368 366 369 375 376 375 375 375 375 373 371 369 368 366 364 363 361 360 359 358 358 358 358 357 357 357 354 353 352 351 350 349 347 346 344 342 340 340 341 341 339 334 330
344 338 333 333 338 350 362 369 371 371 373 374 372 370 369 368 369 368 368 369 367 367 371 375 375 375 374 374 374 372 370 368 366 364 363 362 360 358 357 357 356 355 355 355 355 353 351 349 348 347 347 347 345 343 342 340 339 338 339 338 335 330 327
354 349 335 331 340 354 369 375 374 370 370 371 372 370 368 368 369 368 369 370 369 370 372 374 374 373 372 372 373 370 368 366 364 362 362 361 359 358 357 356 354 354 354 353 351 349 347 346 345 344 344 344 342 340 339 339 338 336 335 333 329 326 325
356 356 345 341 350 358 368 374 372 369 368 369 371 369 367 369 371 371 372 373 373 374 374 374 373 371 370 371 369 367 366 364 362 362 363 361 360 358 357 355 355 354 353 350 348 347 345 344 343 342 342 341 340 338 337 337 336 334 331 329 326 324 324
357 359 358 359 361 361 366 371 370 367 366 367 368 367 367 372 374 374 374 374 374 374 373 373 372 370 368 367 365 364 364 363 362 362 361 361 360 357 355 355 354 353 350 347 344 343 342 341 340 340 339 338 337 336 335 334 334 333 330 327 324 322 322
359 362 363 362 363 364 364 368 369 365 363 365 366 367 370 373 373 374 374 374 373 372 373 372 369 367 366 364 363 364 363 362 360 359 358 358 357 355 353 352 350 347 345 344 342 341 339 339 339 338 338 337 337 336 335 334 334 333 330 326 324 323 321
360 363 363 359 361 365 364 366 367 365 364 367 368 370 372 372 372 374 376 374 371 370 371 369 366 365 364 363 362 361 360 358 356 355 355 356 354 353 351 348 346 344 343 342 341 340 339 338 338 338 338 337 337 337 336 336 336 334 332 329 327 325 324
362 362 359 357 360 364 363 362 363 366 370 373 372 372 374 373 374 375 374 372 370 369 368 366 365 363 362 361 359 357 356 354 353 353 353 352 351 350 348 346 345 343 342 341 341 340 340 339 338 338 338 337 337 338 338 338 337 336 334 332 331 329 327
361 359 359 360 362 363 363 362 363 368 372 373 372 372 373 372 372 372 371 370 369 367 365 364 362 361 360 358 356 354 353 352 350 350 350 349 348 347 345 344 344 342 342 341 341 341 341 340 338 338 338 338 338 339 339 338 338 337 335 333 333 332 330
359 356 355 358 360 362 363 365 366 368 370 371 371 371 370 369 369 368 368 368 367 365 363 361 359 359 357 355 354 352 351 348 347 347 347 345 345 344 343 343 342 342 342 341 341 341 342 341 340 339 339 338 339 339 339 338 337 337 335 334 334 333 332
357 357 358 360 360 362 363 364 364 365 366 365 365 365 365 364 364 364 363 364 363 362 360 357 356 355 354 352 351 350 347 345 344 344 344 342 341 340 340 341 342 341 341 341 341 341 342 341 340 339 338 337 338 338 338 337 337 337 335 334 334 333 333
354 354 355 356 357 358 359 359 360 360 360 359 358 358 358 359 361 361 361 361 360 359 356 355 354 352 351 350 349 346 345 344 343 343 342 338 336 336 336 338 340 340 339 339 339 340 340 341 340 338 338 338 338 338 338 337 337 337 337 335 334 333 333
351 353 353 353 354 356 355 355 355 356 357 356 355 356 357 359 360 360 359 358 357 356 354 353 352 350 349 348 347 345 344 344 343 343 341 337 335 335 335 334 336 336 336 337 337 336 337 338 338 337 337 337 337 337 337 337 337 337 336 336 334 333 333
347 349 351 352 353 354 354 353 352 352 353 353 354 355 357 358 358 358 357 356 355 353 352 351 350 349 348 347 345 345 344 343 342 343 341 339 338 337 336 334 333 332 333 335 335 335 335 336 336 335 336 336 336 336 336 336 336 335 334 334 333 333 332

ECMWFFLT1_925_thetae_021.txt.gz
Theta_e
348 347 348 350 350 351 353 352 351 352 352 354 357 357 357 356 357 358 360 362 363 363 362 361 361 362 362 362 361 361 360 361 362 361 360 359 357 357 355 354 355 354 353 354 352 352 353 352 351 351 349 348 348 347 345 345 342 340 339 338 339 339 339
349 347 347 349 351 354 358 355 350 350 352 354 356 357 357 356 356 358 359 361 362 362 362 362 362 362 362 362 362 362 361 361 362 361 361 360 358 357 356 354 355 355 354 355 353 352 353 352 350 350 349 348 348 348 346 344 342 340 338 338 339 340 339
349 348 349 350 353 354 358 359 353 351 352 354 355 357 357 356 356 357 359 361 362 362 363 362 362 362 362 363 362 362 362 362 362 362 361 360 358 358 358 354 354 356 356 355 354 352 353 352 350 349 349 347 347 348 347 344 342 340 339 338 339 340 339
349 350 352 352 354 353 355 359 357 352 352 354 356 356 357 356 356 357 358 361 362 362 363 363 363 363 362 363 363 363 363 362 362 361 360 360 359 358 359 357 356 357 357 356 355 353 352 351 350 349 349 348 346 346 347 345 342 341 340 338 339 339 339
350 351 354 354 354 354 354 355 355 353 352 354 355 356 357 357 357 358 359 361 362 362 363 363 363 363 363 363 363 363 364 363 362 361 360 360 360 359 359 358 357 357 358 357 356 354 353 351 350 351 349 348 347 346 346 345 343 341 340 339 340 339 339
352 352 354 353 352 353 354 352 352 352 352 353 356 356 357 357 357 358 359 361 362 362 363 363 363 363 363 363 363 364 364 364 363 362 361 360 360 360 359 359 358 357 357 357 356 355 354 352 349 350 350 348 348 347 346 345 343 341 341 340 340 339 339
351 352 353 351 350 350 351 352 351 351 352 354 356 357 357 357 357 358 360 362 362 363 363 364 364 363 363 364 364 364 364 364 363 362 361 360 361 361 360 359 359 358 357 357 357 356 355 353 351 349 350 349 348 347 346 345 343 341 341 340 340 340 340
350 351 351 350 349 348 349 353 352 351 352 353 356 358 357 357 357 357 359 361 362 363 363 363 364 364 364 365 364 364 364 364 364 363 362 361 361 361 360 360 359 358 358 357 357 356 355 354 352 350 350 349 349 348 347 345 343 342 342 341 340 340 340
350 350 350 348 347 348 351 354 353 352 353 352 355 358 357 357 358 357 358 360 361 363 363 363 364 364 364 365 364 364 364 364 364 363 363 362 361 361 360 360 359 359 358 358 357 357 356 355 354 352 351 350 349 348 347 345 344 343 342 342 340 341 341
351 350 351 349 347 349 353 355 355 355 357 355 355 356 358 357 357 357 358 359 361 362 363 363 364 364 364 364 364 364 364 364 364 363 363 362 361 361 361 360 359 358 358 358 357 357 357 355 355 354 352 351 350 349 347 346 344 343 343 342 341 340 341
352 350 351 351 349 352 355 357 358 359 361 358 355 356 358 357 357 357 357 358 359 361 362 363 364 365 365 365 365 365 364 364 364 364 363 363 362 361 361 360 359 358 358 358 358 358 357 356 355 355 353 352 351 349 348 346 345 344 344 343 342 340 340
351 352 354 355 355 356 358 359 360 364 367 361 356 357 357 357 357 357 356 357 358 359 361 362 363 365 365 365 365 364 364 364 364 364 364 363 362 361 360 359 359 358 358 358 358 357 357 357 356 355 354 353 352 350 348 347 346 345 344 344 342 341 340
352 353 356 354 355 357 360 363 363 367 368 361 357 358 358 357 357 357 356 356 356 358 359 360 362 364 365 366 365 364 364 364 364 364 363 363 362 361 360 359 358 358 358 357 357 356 356 355 355 355 355 353 353 351 349 348 347 346 344 344 343 342 341
354 354 354 351 352 356 362 365 365 366 366 361 356 358 360 359 357 357 356 355 356 357 359 361 362 364 365 366 365 364 364 364 364 364 364 363 362 361 360 359 358 358 358 358 357 356 355 355 354 354 355 354 354 352 350 348 347 346 345 344 343 342 341
355 353 352 352 355 360 365 368 367 368 365 360 357 356 358 360 358 358 356 355 356 356 358 361 363 364 365 365 365 364 363 363 363 364 364 363 362 361 360 359 358 357 357 358 358 357 357 356 355 355 355 356 355 353 351 349 347 346 345 344 343 342 341
356 354 355 356 360 363 365 366 367 368 367 365 360 356 358 360 358 358 357 355 356 356 357 360 362 364 364 364 365 364 362 363 363 363 364 364 363 362 361 359 358 358 358 358 359 358 358 357 357 357 357 357 356 355 352 350 348 346 345 344 343 342 341
360 361 363 365 367 367 366 365 366 369 370 370 365 358 357 360 360 358 357 356 356 355 356 356 360 362 362 363 364 363 363 363 362 362 363 364 363 363 361 360 359 358 358 359 360 359 359 358 358 358 359 358 358 356 353 351 349 347 345 344 343 342 341
363 366 368 370 373 372 369 370 371 372 371 369 366 360 358 360 360 359 358 357 356 355 354 355 357 359 360 361 363 364 364 363 363 363 363 364 364 364 363 361 360 359 358 359 360 360 360 359 359 359 360 359 358 356 354 352 350 348 346 345 343 342 341
357 361 365 369 371 370 369 370 375 378 372 366 365 363 360 359 360 360 359 357 356 355 353 353 355 356 358 359 360 363 364 364 365 365 364 364 364 364 364 362 360 360 359 358 360 361 360 360 359 359 359 359 358 356 355 353 351 349 347 346 344 343 341
350 351 358 366 368 370 368 367 373 377 372 367 366 364 362 360 359 360 359 357 355 354 353 352 353 355 356 357 359 362 364 365 366 366 365 365 364 364 364 363 361 361 360 359 360 361 360 360 359 359 359 358 357 356 355 354 352 350 348 346 345 343 342
360 360 362 367 368 368 370 368 371 376 373 368 367 366 364 361 360 359 359 357 354 353 352 351 351 353 353 355 358 361 364 366 366 367 367 366 364 365 364 364 363 362 361 361 361 361 361 361 359 358 357 357 356 355 354 353 352 350 349 347 345 344 342
364 364 362 368 370 371 373 369 367 370 371 368 367 367 366 362 361 361 359 357 354 351 350 349 350 353 352 353 358 362 364 366 366 367 368 367 366 366 366 365 364 362 362 361 361 361 360 360 359 358 357 355 355 354 353 352 351 350 349 348 346 344 342
351 351 353 360 366 369 367 364 362 362 364 367 366 366 367 365 363 363 361 358 356 352 349 348 350 354 353 352 357 363 365 367 368 369 369 369 368 367 366 366 364 363 363 362 361 361 360 359 359 358 357 355 354 353 352 351 351 351 350 349 347 344 342
335 337 341 347 357 367 365 361 362 362 362 366 366 365 366 366 365 364 364 361 359 356 353 348 350 355 355 353 357 363 367 368 369 370 370 370 369 368 366 366 364 364 363 361 360 360 359 358 358 356 356 355 353 353 352 350 350 350 349 348 346 343 342
336 344 348 343 347 363 369 364 362 365 365 365 365 365 366 366 365 365 365 363 362 362 359 353 353 357 356 355 360 365 368 370 371 371 370 369 367 366 366 365 364 363 362 361 360 359 358 358 357 355 355 354 353 352 351 350 349 348 347 346 344 342 341
359 368 366 357 349 355 366 368 367 369 370 367 365 366 366 366 366 365 365 365 363 363 363 360 359 360 359 361 366 369 371 372 371 370 369 367 366 365 364 363 362 361 361 360 359 358 357 356 356 354 353 353 352 351 350 349 348 346 345 344 342 341 340
370 369 362 361 356 353 361 369 370 370 370 368 367 367 366 366 366 365 365 366 364 363 364 365 365 366 366 368 371 372 372 371 370 369 367 366 364 362 361 360 360 360 360 359 356 355 353 353 352 351 350 350 349 348 347 347 346 344 343 342 341 341 340
370 369 362 362 362 356 357 366 370 370 371 370 368 367 366 365 365 366 366 366 365 364 365 368 370 371 371 372 373 371 370 369 367 366 366 363 362 360 359 359 359 359 358 355 353 351 349 348 348 348 347 346 346 346 345 344 344 343 342 341 341 340 339
362 364 363 366 370 364 361 367 370 368 370 372 369 367 368 366 365 366 366 366 365 365 368 372 373 373 373 372 371 369 368 366 365 364 362 360 359 358 357 357 357 356 354 351 350 348 346 345 345 344 342 342 342 343 342 341 341 341 340 340 340 339 338
354 354 355 360 365 363 364 371 372 366 366 372 372 369 368 367 367 367 366 366 367 368 372 374 373 373 372 370 369 367 365 364 363 361 360 358 357 356 355 354 353 352 351 349 347 345 343 342 342 341 339 338 338 339 340 339 339 339 339 339 339 339 337
351 352 353 354 353 352 354 361 361 357 358 364 368 369 369 368 367 366 366 368 370 371 374 374 372 371 369 367 366 364 362 363 362 360 358 357 356 355 353 352 350 348 348 347 345 343 341 340 340 339 338 336 336 336 337 337 337 337 337 337 336 335 333
347 348 350 353 353 348 347 352 354 350 351 354 357 363 369 369 368 366 367 370 372 372 372 371 369 368 366 364 363 362 361 361 360 358 357 355 355 353 352 350 348 346 344 344 342 340 340 339 339 338 337 336 335 335 335 335 335 334 334 333 332 331 328
345 345 347 350 352 348 347 352 355 354 356 355 351 351 359 367 370 370 371 373 372 371 370 368 366 365 362 361 360 359 359 358 356 355 354 352 351 350 348 347 346 344 342 341 340 339 339 338 338 337 337 337 337 336 336 336 335 334 332 331 330 329 326
345 345 345 347 349 348 348 349 349 350 352 351 347 345 348 355 362 367 370 371 369 366 365 363 361 360 358 356 355 355 355 355 353 351 350 348 347 346 345 345 344 342 341 341 340 339 337 337 337 337 337 337 338 337 337 337 336 335 334 332 330 328 326
346 345 344 346 347 349 349 346 344 346 347 344 343 344 345 346 350 354 356 357 356 355 355 355 355 354 352 351 351 351 351 350 349 348 346 345 344 343 343 343 343 342 341 341 340 338 337 337 337 337 337 337 337 337 338 338 337 336 335 333 331 330 328
346 345 344 345 346 348 349 347 346 347 346 343 343 343 343 346 348 349 348 349 349 349 350 351 351 351 350 349 349 349 348 345 343 343 343 342 341 340 340 340 341 341 340 340 340 340 338 338 337 337 337 337 337 337 338 337 337 336 336 335 333 332 330
345 346 345 345 346 347 348 349 348 345 343 343 343 342 343 346 347 347 348 349 349 349 349 349 349 349 349 348 347 346 344 341 339 339 339 339 339 338 337 336 337 338 339 340 340 341 341 340 339 338 338 338 338 338 337 337 336 336 335 335 334 332 331
337 340 342 344 347 348 347 348 348 345 342 343 343 342 343 345 345 344 347 348 348 349 350 349 348 348 347 345 344 344 342 339 337 337 336 336 337 337 335 333 331 331 334 337 339 339 340 340 339 339 338 338 337 337 337 337 336 336 335 335 335 333 332

ECMWFFLT1_925_thetae_024.txt.gz
Theta_e
342 342 342 342 343 343 346 349 349 347 347 350 352 353 353 353 354 355 356 357 357 357 358 358 357 357 357 358 357 357 357 356 356 356 357 357 357 357 357 356 357 357 357 356 356 355 353 353 353 351 351 350 350 348 347 347 345 342 341 340 340 340 339
343 343 343 343 344 344 345 347 347 347 347 350 353 353 353 353 353 355 356 357 358 358 358 358 359 358 357 358 358 358 358 357 357 356 357 357 357 357 357 357 357 356 355 355 354 354 353 353 352 351 350 351 349 346 346 347 345 342 341 339 339 340 339
343 344 344 344 345 345 345 346 346 346 347 350 352 353 354 354 354 355 356 357 358 358 358 359 359 359 358 358 358 359 359 358 358 358 358 358 358 358 358 358 357 357 355 355 354 353 353 353 352 351 350 350 348 344 345 346 344 343 341 339 339 340 339
345 345 345 345 347 346 346 346 346 347 347 349 352 353 353 353 354 354 355 357 358 359 359 359 359 359 359 359 358 358 358 359 358 359 358 358 358 359 358 358 357 356 355 355 354 353 352 352 352 351 350 350 349 345 343 344 344 344 342 340 339 339 338
347 346 346 345 346 347 346 346 346 346 346 348 351 353 354 354 354 355 356 357 358 359 359 359 359 360 359 359 359 358 358 358 358 359 359 359 359 358 358 357 356 356 355 354 354 352 352 352 351 351 350 350 349 347 345 344 344 345 343 340 339 338 338
347 347 347 345 346 346 346 346 345 345 346 348 350 353 354 354 354 355 355 357 358 359 359 359 359 360 360 360 359 359 358 358 358 359 359 359 359 359 358 357 356 356 355 354 353 352 352 352 351 351 351 350 349 348 347 346 345 345 343 341 339 338 338
345 347 347 346 346 346 346 347 346 345 346 348 349 352 354 354 354 355 355 357 358 359 360 360 360 359 360 360 360 359 359 359 358 359 359 359 359 359 358 357 356 356 355 354 353 353 352 352 352 351 351 351 350 349 347 347 347 346 344 341 340 338 338
344 347 347 346 346 345 346 348 348 346 346 348 350 352 354 354 354 354 355 357 358 359 360 360 360 360 360 360 360 360 360 359 360 359 359 359 359 359 358 358 357 356 355 355 354 354 354 353 352 352 352 351 350 349 347 347 347 346 345 342 340 339 338
345 346 347 346 345 345 346 348 349 348 347 348 350 352 354 354 355 355 355 357 358 359 360 360 360 360 360 360 360 360 360 360 360 360 360 360 359 359 359 358 357 357 356 356 355 354 355 354 353 352 352 351 350 349 348 347 347 346 345 343 341 340 339
346 346 347 347 346 347 347 346 350 352 352 351 350 352 354 354 355 355 355 356 358 359 359 360 361 360 360 361 360 360 360 360 360 360 360 360 359 359 359 358 358 357 357 356 356 355 355 355 354 352 351 351 350 349 348 347 346 346 345 343 342 340 340
348 347 347 348 347 348 348 349 352 354 355 353 350 353 354 353 355 355 355 357 358 358 360 360 361 361 360 361 361 361 361 360 361 361 361 361 360 360 360 359 358 357 357 357 356 356 356 356 355 353 352 351 350 350 349 348 347 346 345 344 343 341 340
349 350 349 350 350 350 353 355 355 355 355 353 350 353 354 354 355 355 355 357 358 359 360 360 361 361 361 361 361 361 361 361 361 361 361 361 360 360 360 359 359 358 357 357 357 357 356 356 355 354 353 352 350 350 349 348 347 347 345 344 343 342 341
350 350 350 350 350 351 356 359 357 355 355 352 350 353 354 354 355 355 355 356 357 359 360 360 361 361 361 362 361 361 361 361 361 361 361 361 361 360 360 360 359 358 358 357 357 357 356 356 356 355 354 352 351 350 349 349 348 347 346 345 343 342 341
350 349 349 351 350 352 358 359 357 356 356 352 350 352 355 354 354 354 355 356 357 358 360 360 361 362 361 361 361 362 362 361 361 361 361 361 361 360 360 359 359 359 358 357 358 357 356 356 356 355 354 353 352 351 350 349 348 347 346 345 343 342 341
350 349 349 350 351 352 355 356 356 356 356 354 351 351 354 355 355 355 355 355 357 358 359 361 361 361 362 362 362 362 362 361 362 361 361 361 361 361 360 360 359 359 358 358 357 357 357 356 356 355 355 354 353 352 351 350 349 348 347 346 344 343 342
352 350 349 349 351 351 352 356 356 356 357 357 354 352 353 354 355 355 355 355 356 358 359 360 361 362 362 362 362 362 362 362 362 362 361 361 361 361 360 360 359 359 358 358 357 357 357 356 356 356 355 355 354 353 352 351 350 349 348 347 345 344 343
353 350 350 349 349 349 350 353 356 357 358 359 357 353 352 354 355 355 355 355 355 357 358 359 361 362 361 362 362 362 361 362 362 361 362 361 361 361 360 360 359 358 358 358 357 357 356 356 356 355 355 355 354 354 353 352 351 350 349 348 346 344 344
353 349 349 349 349 350 351 353 355 358 358 357 355 353 353 354 355 355 355 355 355 356 357 358 359 360 361 362 362 362 362 362 362 362 361 361 361 361 360 360 360 358 358 357 357 357 357 356 356 355 355 355 354 354 354 353 353 352 350 349 347 346 345
357 352 351 351 351 353 352 352 354 357 356 354 352 353 355 355 355 355 355 355 355 355 355 358 358 359 361 361 361 363 362 362 362 361 361 361 361 361 361 360 360 359 358 357 357 357 357 356 356 355 355 354 354 354 354 353 353 352 351 350 348 347 347
358 355 353 351 351 352 351 353 354 354 352 351 351 352 355 356 356 356 356 355 355 355 355 357 358 358 359 360 361 362 362 362 362 361 361 361 361 361 361 360 360 359 358 357 356 356 357 357 356 356 356 355 354 354 354 354 354 353 352 351 350 349 347
359 358 355 353 353 353 352 354 354 354 352 350 351 353 353 356 357 356 356 356 355 355 355 356 357 358 359 360 361 361 362 362 362 361 361 361 361 361 361 360 360 359 358 357 357 356 357 357 357 357 357 356 356 355 355 355 354 354 353 352 351 350 348
355 355 354 354 355 355 355 353 350 351 351 350 352 353 353 354 357 357 356 356 355 355 355 355 356 358 358 360 360 361 362 362 361 361 361 360 361 361 361 361 360 359 359 358 357 357 357 357 358 357 357 357 357 356 356 356 355 355 354 353 353 350 347
345 349 355 354 353 353 351 349 348 348 349 351 353 355 354 354 355 356 357 356 356 355 355 354 355 356 357 359 360 360 362 362 361 361 361 360 361 360 361 361 360 360 359 358 358 358 357 358 358 358 358 358 357 357 357 356 355 355 355 354 353 350 346
340 340 351 355 357 359 352 349 351 350 352 355 356 355 356 356 355 356 356 356 356 355 354 354 354 354 356 358 358 359 361 361 362 361 361 361 361 360 360 361 361 360 360 359 359 358 358 358 358 358 358 358 358 358 357 356 356 356 355 354 353 350 347
351 345 349 351 353 358 354 352 354 353 354 359 359 358 359 358 356 356 356 356 356 355 354 354 353 353 354 355 357 358 359 361 361 362 361 361 361 360 361 361 361 361 360 360 360 359 358 359 358 358 358 358 358 357 356 356 355 354 353 352 352 350 347
357 358 359 355 352 353 351 352 357 357 356 358 360 362 361 360 359 357 356 357 356 355 355 354 354 354 353 353 355 356 357 359 361 362 362 362 362 361 361 361 361 361 361 360 359 359 359 358 358 357 357 356 356 356 355 354 353 352 352 352 351 349 346
353 354 355 354 354 354 353 354 357 357 356 356 359 362 362 362 362 359 357 357 356 355 355 354 354 354 352 352 353 354 355 358 359 361 362 362 363 362 362 362 362 361 361 360 359 358 358 358 357 357 356 355 355 354 353 353 352 351 350 350 350 349 346
352 354 354 352 351 350 353 359 361 358 357 357 358 359 361 362 362 361 359 358 357 357 356 354 354 353 352 352 352 352 355 357 359 361 362 363 364 363 363 363 362 360 360 358 358 357 357 356 356 355 354 354 353 353 353 352 351 351 349 348 348 347 345
348 351 352 352 351 348 352 364 366 359 359 362 361 361 361 361 361 361 361 359 359 359 357 355 354 352 351 351 351 352 354 358 360 362 363 364 365 364 363 362 360 358 358 357 357 356 354 353 353 352 351 350 350 351 352 351 350 348 348 347 346 344 343
345 346 347 349 350 347 350 359 360 354 358 364 364 363 363 361 362 361 360 361 361 361 360 358 355 353 350 351 353 354 356 360 362 363 364 365 364 363 362 360 357 356 356 356 355 352 349 349 349 348 347 347 347 348 348 348 347 346 345 345 343 342 342
344 345 346 346 347 346 347 354 355 351 354 359 361 363 363 362 362 360 357 359 362 362 363 361 359 357 355 354 357 359 361 363 364 364 364 364 363 361 359 356 354 352 352 351 349 347 345 344 345 346 345 344 344 345 345 344 344 343 342 342 341 340 340
343 344 345 346 346 345 344 347 350 349 350 351 352 356 358 358 361 360 357 358 361 363 366 367 365 363 361 361 362 363 364 365 364 363 362 360 359 357 354 351 350 347 345 344 343 342 342 342 342 342 342 342 342 343 342 341 341 341 340 339 339 339 338
344 344 345 346 346 344 343 344 345 345 346 347 348 351 351 353 355 357 356 358 360 363 366 367 366 364 364 364 364 364 363 362 359 356 354 352 351 350 347 346 345 343 341 341 341 341 340 340 340 339 339 339 340 339 338 338 339 339 338 338 338 337 336
343 343 344 345 346 345 344 343 343 344 345 345 347 348 349 350 351 353 355 357 359 362 363 360 357 357 356 357 358 357 355 353 349 347 346 345 345 345 344 344 344 343 341 340 342 342 340 338 338 339 339 338 337 335 335 336 337 338 338 338 337 336 335
340 340 342 344 346 346 345 342 342 343 344 345 346 347 347 348 350 353 356 359 361 362 357 353 352 351 348 347 348 347 346 345 345 345 344 343 342 342 342 343 343 342 340 341 344 345 344 341 340 339 339 339 337 336 334 334 336 337 338 337 338 337 335
338 338 340 343 345 346 344 342 342 343 343 345 346 346 346 346 348 350 353 355 357 356 351 349 350 349 346 344 344 344 343 343 342 342 341 340 338 338 338 339 341 342 343 343 345 347 346 344 342 341 340 339 338 337 336 335 336 336 335 335 335 335 334
337 339 340 342 344 346 344 343 342 342 343 344 345 346 346 347 347 347 348 349 350 349 347 346 345 345 344 343 342 341 341 339 338 338 337 336 336 337 336 336 338 341 343 343 343 342 342 342 341 340 339 338 337 337 336 336 335 335 334 333 332 330 330
334 337 338 340 342 344 344 344 343 341 341 343 344 345 345 346 346 345 345 345 345 344 343 342 341 341 341 341 339 339 338 336 336 336 335 334 335 336 335 334 333 334 337 339 339 338 338 338 338 337 337 337 336 336 336 335 335 335 334 334 332 330 328

ECMWFFLT1_925_thetae_027.txt.gz
Theta_e
340 341 342 344 346 346 347 348 346 346 346 347 348 348 349 349 350 351 351 352 352 352 353 354 354 354 354 354 354 353 354 353 353 353 353 353 353 353 353 353 353 354 355 355 356 356 356 356 357 358 359 357 354 350 347 346 345 343 342 343 343 341 339
339 340 341 342 344 345 347 347 345 345 346 347 348 348 349 350 350 352 352 352 352 352 353 354 354 355 355 354 354 354 354 353 354 354 354 354 354 353 352 353 353 354 355 355 355 356 356 357 357 358 358 356 353 350 347 347 346 344 342 342 342 340 339
338 339 339 340 343 345 345 346 346 345 346 346 348 349 349 350 350 351 352 353 352 352 353 353 354 355 355 355 355 354 354 354 354 354 354 354 354 353 353 353 354 355 355 355 355 355 356 357 358 358 356 354 352 350 348 348 348 346 343 342 342 340 339
338 339 340 339 342 343 344 346 346 346 346 346 347 348 349 350 350 351 352 353 353 353 353 353 354 355 355 355 355 355 355 355 355 355 354 354 354 353 353 354 354 355 355 355 355 355 356 357 357 357 355 353 351 349 349 349 349 347 344 343 343 341 340
339 338 339 340 340 341 342 344 344 345 345 346 347 348 349 350 350 351 352 353 353 353 353 354 354 355 355 355 355 355 355 355 355 355 355 354 354 354 354 354 354 355 355 355 355 355 356 357 356 356 354 353 351 350 349 349 349 348 345 344 344 343 341
340 339 340 340 339 340 341 341 343 344 345 345 346 347 349 350 350 351 351 352 353 354 353 354 354 354 355 355 356 356 355 355 355 355 355 355 354 354 354 354 355 355 355 355 355 355 356 356 355 354 353 352 351 350 350 350 350 349 346 345 345 344 342
342 341 340 340 340 340 340 340 341 341 344 345 345 346 348 350 351 351 351 352 353 354 354 354 355 355 355 355 355 356 355 356 356 355 355 355 355 355 355 355 355 355 355 355 355 355 355 355 355 354 353 352 352 351 350 350 350 348 346 345 345 344 342
343 343 341 340 341 339 340 341 341 340 342 344 345 346 348 349 351 351 352 352 353 354 355 355 355 355 356 356 355 356 355 355 356 356 356 356 356 356 355 355 355 355 355 355 355 355 355 355 354 353 353 352 352 351 350 349 349 348 346 346 346 344 342
343 344 342 341 340 340 341 341 340 340 340 343 344 345 347 349 351 351 351 352 353 355 355 355 356 356 356 357 356 356 356 356 356 356 356 356 356 357 356 356 355 355 355 355 355 355 355 355 354 353 352 352 351 351 350 350 349 348 345 345 345 344 343
344 345 344 344 341 341 342 341 342 343 343 343 343 345 347 349 351 351 352 352 353 354 355 355 356 356 356 357 356 357 356 356 356 356 357 357 356 357 357 356 356 355 355 355 355 355 354 354 354 353 352 351 351 350 350 349 349 348 346 344 343 343 343
345 345 345 346 344 343 343 343 345 347 347 345 342 345 347 348 350 351 351 352 353 354 355 356 356 356 357 357 357 357 357 357 357 356 356 357 357 357 357 356 356 356 356 356 355 355 354 354 353 352 352 351 351 350 350 349 349 348 347 345 344 344 343
345 346 346 346 346 345 345 346 347 349 349 345 342 344 347 348 351 351 351 352 352 354 355 356 357 357 357 357 357 357 358 357 357 357 357 357 356 357 357 356 356 356 356 356 355 355 354 354 353 352 352 351 351 350 350 349 349 348 348 347 346 345 344
346 346 345 345 346 346 346 348 349 349 349 346 343 344 347 348 350 351 352 352 352 354 355 356 357 357 357 358 357 357 358 358 358 358 357 357 357 357 357 356 356 356 356 356 356 355 354 354 354 353 352 351 351 351 350 350 350 349 349 348 346 346 345
348 347 345 346 345 347 349 350 348 349 350 347 344 344 347 348 350 351 352 352 353 354 355 356 357 357 358 358 357 358 358 358 358 358 358 358 358 357 357 357 357 357 356 356 356 355 355 355 354 353 353 352 351 351 351 350 350 349 348 347 346 345 344
345 345 346 347 347 348 349 349 349 350 350 349 346 345 347 348 350 351 351 352 353 353 355 357 357 358 358 358 358 358 358 358 358 358 358 358 358 358 358 357 357 357 357 356 356 356 355 355 355 354 353 353 352 351 351 350 350 349 348 347 346 345 344
342 342 344 346 347 348 348 349 349 349 350 352 350 347 347 348 350 351 352 352 353 354 355 356 357 358 358 358 358 358 358 358 358 358 359 358 358 358 358 358 358 357 357 357 356 356 355 355 355 355 354 353 353 352 351 351 350 350 349 348 347 346 344
340 340 343 345 346 347 347 348 350 349 350 352 351 348 348 349 350 351 352 352 353 354 355 356 357 358 358 358 359 358 359 359 358 359 359 359 358 358 358 358 358 357 357 357 356 356 356 356 355 355 354 354 354 353 352 352 351 350 350 349 348 347 345
347 342 342 345 347 348 347 347 349 351 350 350 348 347 348 350 351 351 352 352 353 354 355 356 357 357 358 358 358 359 359 358 359 359 359 358 359 358 359 359 358 358 357 357 357 357 356 356 356 355 355 354 354 353 353 352 352 351 350 349 348 347 346
350 346 345 345 346 347 347 346 347 349 350 348 346 346 348 350 351 351 352 352 352 354 355 356 357 357 358 358 358 359 359 359 359 359 359 359 359 358 359 359 358 358 358 357 357 357 356 356 356 355 355 355 354 354 354 353 352 351 351 350 349 348 348
351 347 345 345 347 347 346 346 346 347 347 346 346 346 348 350 351 351 352 352 353 353 355 356 357 357 358 358 358 359 359 359 359 359 359 359 359 359 359 359 359 358 358 358 357 356 357 356 356 356 355 355 355 354 354 354 353 352 352 352 351 350 349
358 354 349 346 347 348 349 349 350 349 347 345 346 347 347 349 351 351 352 353 353 353 355 356 357 357 358 358 358 359 359 359 359 359 359 359 359 359 359 359 359 359 358 357 357 357 357 356 356 356 355 355 355 355 354 354 353 353 353 352 352 352 351
355 354 354 352 350 351 353 349 347 347 346 345 346 348 348 348 350 351 352 353 353 353 354 355 356 357 358 358 359 359 359 359 360 360 360 360 359 360 359 359 359 358 358 358 357 357 356 356 356 355 355 355 355 354 354 354 354 354 354 353 353 353 351
348 345 349 353 350 347 345 343 342 343 344 346 347 348 349 349 349 351 352 352 353 353 353 354 355 356 357 358 358 359 359 360 360 360 360 360 360 359 359 359 359 358 358 358 357 357 356 355 356 355 355 355 355 354 354 354 354 354 353 353 354 353 351
351 349 354 357 356 353 345 341 342 343 343 346 347 348 349 350 350 351 352 352 353 353 353 353 354 355 356 357 358 358 359 360 360 360 360 359 360 359 359 359 359 359 358 358 357 357 356 356 355 355 356 355 355 355 354 354 354 354 353 354 353 352 352
353 353 354 354 358 361 354 346 344 345 345 345 346 347 349 350 351 352 352 352 353 353 353 353 353 354 355 356 357 358 359 359 360 360 360 360 359 359 359 359 359 359 359 358 357 357 356 356 355 355 355 355 355 355 355 355 355 354 354 354 353 353 352
350 351 352 349 349 352 350 349 350 351 349 346 346 347 348 349 351 352 352 353 353 353 353 353 353 354 354 355 356 357 358 359 360 360 360 360 360 359 359 359 359 359 359 358 357 357 356 356 355 355 355 355 355 355 355 355 355 355 355 355 354 354 353
346 347 349 348 347 349 348 349 353 353 349 347 348 350 349 350 351 351 352 354 353 353 354 354 353 354 354 354 355 356 357 358 358 360 360 360 360 359 359 359 359 359 358 358 357 357 356 356 356 355 356 355 356 356 355 356 356 355 355 355 355 355 353
345 346 347 346 347 347 347 348 351 352 353 354 353 353 353 353 352 351 351 353 353 354 354 354 354 354 354 354 354 355 357 358 358 359 360 359 360 359 359 359 359 359 359 358 358 357 357 356 356 355 355 355 355 355 355 355 355 355 355 355 355 354 352
346 347 346 346 346 346 347 350 350 350 353 357 358 357 357 356 355 354 352 352 353 354 354 354 355 354 353 354 354 354 356 357 358 359 359 359 359 359 359 359 358 359 359 358 358 357 356 355 355 354 353 352 352 353 353 354 355 355 355 354 353 352 351
345 345 345 345 345 344 344 347 348 348 349 354 357 359 359 358 358 357 356 356 355 354 355 355 354 354 354 353 353 353 354 355 357 358 359 359 359 359 359 359 358 358 358 358 357 356 354 352 351 349 347 346 346 347 350 352 354 354 353 352 351 350 349
344 345 346 345 344 343 343 344 345 345 346 350 353 355 357 359 359 358 358 359 358 357 358 357 355 354 353 353 352 352 352 354 355 357 358 359 359 359 359 359 358 358 357 356 355 353 349 347 346 346 345 343 341 343 347 349 351 351 351 350 350 349 348
342 344 346 345 344 343 342 342 344 344 345 347 349 350 353 355 356 357 358 359 360 360 359 359 358 356 353 352 352 351 351 352 353 355 357 359 360 360 359 359 358 356 355 354 352 349 347 346 346 347 346 343 340 342 345 347 349 349 348 347 347 346 346
342 344 346 346 344 342 341 343 345 345 345 345 346 347 350 352 353 354 356 358 360 361 362 361 360 357 354 352 351 351 350 351 353 355 357 358 360 360 360 359 357 354 352 350 348 346 346 347 348 346 342 340 339 340 343 345 346 346 345 344 344 343 342
342 344 345 345 343 341 341 343 344 345 345 345 345 346 347 349 352 352 354 356 358 362 364 363 361 360 356 353 352 352 352 353 354 356 358 359 360 359 358 356 354 352 350 350 349 348 347 347 345 343 342 340 339 338 338 341 343 345 344 343 343 341 340
341 342 343 344 343 341 341 342 343 344 344 344 345 345 345 346 348 350 352 354 357 361 363 362 361 360 358 356 356 355 355 355 356 357 358 358 357 356 354 353 352 351 350 351 351 353 353 350 344 342 343 342 341 339 338 339 343 345 344 343 342 341 339
339 340 341 343 343 343 342 342 342 343 343 344 345 345 345 346 346 348 349 351 354 356 357 357 357 356 355 356 356 356 356 356 356 356 356 353 351 349 347 347 348 349 348 347 348 351 353 351 345 344 345 345 345 347 346 346 346 344 342 341 341 340 339
337 339 339 341 343 344 343 343 343 343 343 343 344 344 345 345 345 345 346 347 349 351 352 352 353 352 353 354 354 354 355 354 354 353 351 348 347 345 340 337 339 342 343 343 343 345 347 346 344 345 347 348 348 346 345 345 344 342 341 340 340 338 338
334 336 337 339 341 342 343 343 343 343 342 343 344 344 344 344 343 343 342 343 344 345 345 345 345 345 346 346 347 350 351 351 351 350 347 345 344 342 337 334 333 333 336 339 341 341 342 344 345 346 347 349 348 344 341 340 341 340 340 340 339 338 338

ECMWFFLT1_925_thetae_030.txt.gz
Theta_e
344 346 346 345 347 346 347 347 346 345 345 346 347 347 348 349 350 350 351 351 352 351 351 351 352 352 352 353 353 353 353 353 353 352 351 352 352 352 352 352 352 352 352 353 353 353 353 352 353 353 354 355 356 356 355 356 357 355 349 344 343 342 341
342 344 345 345 346 346 347 347 345 345 345 345 346 346 348 348 348 350 350 351 351 351 351 351 351 352 352 353 353 353 353 353 353 352 352 352 352 351 351 351 352 351 352 352 352 352 351 350 352 353 354 355 356 355 355 356 357 354 349 344 342 342 341
341 342 344 344 346 346 347 347 344 344 344 345 346 346 347 347 348 349 350 350 351 351 351 351 351 352 352 353 353 353 353 353 353 352 352 352 352 352 351 351 351 351 351 351 351 351 350 350 351 353 354 355 356 355 356 357 357 354 348 343 342 342 341
338 341 342 342 345 345 346 347 345 344 344 344 346 346 347 347 348 349 349 350 351 351 351 351 351 352 352 352 353 352 353 352 353 353 352 352 352 352 352 351 351 351 351 351 351 350 350 350 352 354 354 355 356 355 356 357 356 353 349 344 343 342 341
336 338 340 341 342 343 345 346 345 344 344 344 345 346 346 347 347 348 349 349 350 350 351 351 351 352 352 352 353 353 353 352 353 353 352 352 352 352 352 352 351 351 352 352 351 351 350 351 352 354 355 355 356 356 357 357 355 353 349 345 344 343 341
335 336 338 339 340 341 343 344 343 343 344 344 344 345 346 346 347 347 348 349 350 350 350 351 351 351 352 352 352 353 353 353 352 352 353 352 352 352 352 352 352 352 352 352 352 351 351 351 352 354 355 355 356 356 357 357 354 352 349 346 346 344 342
336 336 336 337 338 339 340 342 342 343 343 344 344 345 346 346 347 347 348 349 349 350 350 350 351 351 352 352 353 353 353 353 353 352 353 352 352 352 352 352 352 352 353 352 352 352 351 351 352 354 355 355 355 356 357 356 354 351 349 347 347 346 344
338 338 336 336 337 337 338 340 341 342 342 344 344 344 345 346 347 347 348 349 349 350 350 350 351 351 352 352 353 353 353 353 353 353 353 353 352 353 352 353 353 353 353 353 352 352 351 351 352 353 355 355 355 356 356 356 354 351 349 348 348 348 347
339 340 338 336 335 336 338 338 339 340 341 343 343 344 345 345 347 347 348 349 349 350 350 350 351 351 351 352 352 353 353 353 353 353 353 353 353 353 353 353 353 353 353 353 353 352 352 352 352 353 354 354 354 355 355 355 353 351 349 348 348 348 348
341 342 342 340 337 337 338 337 339 341 342 342 343 343 344 345 346 347 348 348 349 350 350 350 351 351 352 352 352 353 353 353 354 353 353 353 353 353 353 353 353 353 353 353 353 353 352 352 353 353 353 354 354 354 354 354 353 351 350 349 348 348 348
343 345 345 346 343 340 340 339 341 343 344 342 341 343 344 344 346 347 347 349 348 349 350 350 351 351 351 352 352 353 353 353 354 354 354 354 354 354 353 353 354 353 353 354 353 353 353 353 353 353 353 353 353 353 353 353 352 351 351 350 349 349 348
346 349 350 350 348 344 342 342 344 344 345 342 339 342 344 343 346 346 347 348 348 349 350 351 352 352 352 353 353 353 353 353 354 354 354 354 354 354 354 354 354 354 354 354 353 354 353 353 353 353 353 353 353 353 353 352 352 351 351 350 349 349 349
347 349 348 348 348 346 345 345 345 345 345 341 338 341 343 343 345 346 347 348 348 349 350 350 351 352 352 353 353 353 353 353 354 354 354 354 354 354 354 354 354 354 354 354 354 354 353 353 353 353 353 353 353 353 353 352 351 351 351 350 349 349 348
345 347 348 348 348 348 349 348 346 346 345 341 338 339 341 343 344 345 347 348 348 349 350 351 352 352 353 353 353 354 354 354 354 354 354 355 354 354 355 354 355 354 355 355 354 354 354 353 353 353 353 353 353 353 352 352 351 351 350 350 349 348 348
344 344 346 347 349 349 350 348 347 347 345 343 340 339 340 342 343 345 346 347 349 349 349 351 352 352 353 353 354 354 354 354 354 354 354 354 354 355 355 355 355 355 355 355 355 354 354 354 354 353 353 353 353 352 352 351 351 351 350 349 349 348 347
343 341 342 344 346 346 347 347 347 347 347 347 343 340 340 341 343 345 346 347 348 349 350 351 352 352 353 354 354 354 354 355 355 355 355 355 354 355 355 355 355 355 355 355 355 355 354 354 354 353 353 352 352 352 351 351 351 351 351 350 349 348 348
347 344 342 342 344 344 345 346 347 347 347 348 346 341 339 341 342 344 345 347 348 349 350 350 352 353 353 354 355 354 355 355 355 356 356 355 355 355 355 355 355 355 356 355 355 355 355 355 354 353 353 353 352 352 351 351 351 351 351 350 350 349 348
359 354 345 342 343 345 345 344 346 348 346 345 343 340 340 341 342 344 346 347 348 349 350 351 352 353 353 354 354 354 355 355 355 356 356 356 356 356 356 356 355 355 355 355 355 355 355 355 354 354 353 353 352 352 351 351 351 351 351 350 350 350 349
360 355 346 342 341 344 345 342 343 345 344 343 341 340 341 342 342 344 346 346 348 349 349 351 352 353 354 354 355 355 355 355 356 356 356 356 356 356 356 356 356 356 356 355 355 355 355 355 354 354 354 353 353 352 352 352 352 351 351 351 350 350 350
355 351 346 343 342 343 343 343 343 343 341 340 340 340 342 342 343 344 345 346 348 349 350 351 352 353 354 354 355 355 355 355 356 356 356 356 356 356 356 356 356 356 356 356 356 355 355 355 354 354 354 354 353 353 352 352 352 351 351 351 351 351 350
363 356 352 348 346 345 346 348 347 345 342 339 339 341 342 343 343 344 345 347 348 349 350 351 352 353 354 354 355 355 355 356 356 356 356 356 356 357 357 356 357 356 356 356 356 355 355 355 355 354 354 354 353 353 353 353 352 352 352 351 352 351 351
363 356 351 345 344 348 350 348 344 343 341 339 340 342 342 343 345 345 346 347 348 350 350 351 352 353 354 354 355 355 356 356 356 356 357 356 357 357 357 357 357 357 357 356 356 356 355 355 355 355 354 354 354 353 353 353 353 352 353 352 352 352 351
352 351 351 345 343 346 344 340 337 338 339 339 341 342 342 344 345 346 347 348 348 350 351 351 353 353 353 354 355 355 356 356 357 357 357 357 357 357 357 357 357 357 357 357 356 356 356 355 355 355 354 354 354 354 354 353 353 353 353 353 353 352 351
347 349 350 347 348 350 345 342 340 338 339 340 342 343 343 344 345 347 348 349 349 350 350 351 352 353 354 354 355 355 356 356 357 357 357 357 357 357 357 357 357 357 357 357 356 356 356 355 355 355 355 354 354 354 354 353 353 353 353 353 353 352 351
347 348 348 346 349 352 349 347 344 339 340 341 342 343 344 344 346 348 348 349 350 350 351 351 352 352 353 354 354 355 356 356 357 357 357 358 357 357 357 357 357 358 357 357 357 356 356 356 355 355 355 355 355 354 354 353 353 353 353 353 353 353 352
347 348 348 346 347 348 348 348 348 345 343 341 342 344 345 345 346 347 348 349 350 350 351 351 352 352 353 353 354 355 356 356 357 357 357 358 358 358 358 358 357 358 357 357 357 357 356 356 355 355 355 354 354 354 354 353 353 353 353 353 353 353 352
345 345 345 345 346 348 348 349 350 350 349 347 345 344 345 347 347 346 348 349 349 350 351 351 351 351 352 353 355 355 356 357 357 357 357 358 358 358 358 358 358 358 357 357 357 357 357 356 355 355 355 354 354 354 354 353 353 353 353 353 353 353 353
344 344 345 344 345 346 347 348 349 349 350 351 350 346 345 347 347 348 349 349 349 350 350 351 351 351 352 353 354 355 356 356 356 357 358 358 358 358 358 358 358 358 358 358 357 357 357 356 355 355 354 354 354 354 354 354 354 353 354 354 353 353 353
345 345 345 344 344 344 345 347 347 346 347 349 351 351 349 347 347 348 349 350 350 350 350 351 351 351 352 352 353 354 355 356 356 357 357 358 358 358 358 358 358 358 358 358 357 357 356 356 355 355 354 354 353 354 354 353 353 354 354 354 353 353 353
345 345 344 344 344 343 343 344 345 345 345 346 348 352 352 351 350 349 348 350 351 350 350 352 351 351 352 352 352 353 354 355 356 357 357 358 358 358 358 358 358 358 358 358 358 357 356 356 355 355 354 353 352 352 353 353 354 354 354 354 354 354 353
343 344 344 342 341 342 343 344 344 344 345 344 345 348 349 351 352 351 350 352 352 351 351 351 352 353 352 352 352 353 353 354 355 356 357 358 358 358 358 358 358 358 358 357 357 357 356 356 355 354 353 351 350 350 351 352 353 353 354 354 353 353 353
343 343 343 342 342 342 343 343 344 344 344 344 344 345 345 347 348 349 350 353 355 355 354 353 352 353 353 352 352 352 352 353 354 355 356 357 357 358 358 358 358 357 357 357 357 357 357 356 354 353 352 350 348 347 348 351 352 352 353 353 353 354 353
344 343 343 343 342 342 343 343 344 344 344 344 344 344 345 346 346 347 350 353 354 357 358 357 355 353 352 352 353 352 352 352 353 354 355 356 357 358 358 358 358 357 357 357 356 356 356 355 353 352 351 349 347 346 347 348 348 349 351 352 352 351 348
344 344 343 343 342 343 343 343 344 344 344 344 345 344 345 345 345 346 349 351 353 355 358 360 359 356 354 352 351 351 351 352 352 353 354 355 356 357 357 358 357 357 357 357 357 357 356 354 353 351 350 349 348 345 342 342 343 346 350 351 349 346 342
343 343 343 343 343 343 343 343 344 344 344 344 344 345 344 344 344 345 347 350 352 354 356 358 359 359 357 355 353 351 350 350 351 351 352 354 356 356 357 357 357 357 357 357 357 357 356 354 353 351 350 349 345 341 337 336 339 344 348 350 350 347 343
341 341 341 342 343 343 343 343 344 344 344 344 344 344 344 343 343 344 346 348 350 352 353 355 357 357 356 356 354 353 352 351 350 350 351 352 353 355 356 357 357 358 357 357 357 356 356 355 353 351 350 347 344 344 345 344 346 346 347 348 349 348 345
338 339 339 340 341 341 342 342 342 343 343 343 344 344 343 342 342 344 346 347 348 350 351 352 352 352 352 351 350 349 349 349 348 348 350 351 352 354 354 354 354 355 356 356 356 355 355 354 352 351 351 348 347 348 350 350 350 349 348 347 346 344 343
335 336 337 337 339 339 340 340 341 341 341 342 343 344 343 343 342 343 345 345 346 347 349 349 349 348 346 346 346 346 345 345 345 345 345 346 347 349 349 347 346 348 350 353 354 354 353 352 350 349 349 350 349 347 344 344 347 348 346 344 342 342 342

ECMWFFLT1_925_thetae_033.txt.gz
Theta_e
349 349 350 351 351 351 351 353 353 354 353 354 354 353 353 354 354 355 355 356 356 356 357 355 355 356 357 357 357 356 356 356 356 355 355 355 354 354 353 352 353 353 354 355 353 351 350 351 353 354 355 356 357 357 356 356 356 357 357 356 356 355 350
349 349 349 350 350 351 351 353 354 354 353 353 353 352 353 354 354 355 355 355 355 356 356 355 355 356 356 356 356 356 356 356 356 355 355 355 353 352 351 350 351 351 352 353 352 351 351 351 352 353 354 354 356 357 356 356 356 357 357 356 356 356 350
348 348 349 349 350 351 351 352 353 354 353 352 353 352 352 353 354 354 355 355 355 355 356 356 355 355 355 356 356 355 355 356 356 355 355 355 353 353 352 351 350 350 350 351 352 352 352 352 352 353 353 353 355 355 356 356 356 357 357 356 356 356 351
347 347 348 349 350 351 351 351 351 353 352 351 352 352 352 353 353 353 354 355 355 356 356 356 355 355 355 356 356 356 355 356 356 355 355 355 354 354 354 352 351 351 351 351 351 352 352 352 352 352 352 352 353 353 355 356 356 356 357 356 356 356 352
345 346 347 348 349 349 350 349 350 351 351 351 351 351 352 352 352 352 353 354 355 355 355 355 355 355 355 355 356 356 356 355 355 355 355 355 355 354 354 353 352 352 352 351 352 352 351 352 353 353 352 352 352 353 354 356 357 357 356 355 356 356 352
342 343 345 347 346 348 348 347 349 350 350 349 350 350 351 351 351 352 352 353 354 355 355 355 355 355 355 355 355 356 356 355 355 355 355 355 355 354 354 353 352 352 353 352 352 352 351 351 352 352 352 352 353 353 353 355 357 357 356 355 356 356 353
340 342 343 345 345 345 347 346 347 349 349 349 349 349 350 350 351 351 351 353 353 354 355 355 355 355 355 355 355 356 356 356 355 355 355 355 355 354 354 353 353 352 353 353 352 352 352 351 351 352 352 352 353 352 351 353 355 356 355 355 356 356 353
341 342 341 342 343 343 345 345 347 348 348 349 348 349 349 348 350 350 350 351 352 353 354 354 355 355 355 355 355 356 355 355 355 355 355 355 355 355 355 354 353 352 353 353 352 352 351 351 351 351 352 352 352 351 350 350 353 355 355 355 356 356 353
340 343 341 339 338 339 342 344 347 348 349 349 349 348 348 348 349 349 350 351 351 352 353 353 354 355 355 355 355 355 355 355 356 355 355 356 356 356 355 355 354 353 352 353 353 352 352 351 352 351 352 352 351 351 351 350 352 354 354 354 356 356 353
342 345 345 341 337 338 340 342 346 349 351 352 350 349 348 348 349 349 350 350 350 351 352 352 353 354 355 355 355 355 356 356 356 356 355 356 356 356 355 355 355 354 353 353 354 354 352 351 352 352 352 352 352 351 351 352 352 353 353 353 355 355 353
344 347 349 346 343 342 340 341 348 351 352 352 351 350 350 349 349 349 349 350 350 350 352 352 353 354 354 354 355 356 356 356 356 356 356 355 355 356 355 355 355 355 354 354 355 355 353 352 352 352 352 352 352 351 351 352 352 353 353 353 354 355 354
345 349 352 351 348 346 345 346 349 351 353 352 350 350 350 349 349 348 349 350 349 350 351 351 352 353 354 354 354 355 356 356 356 356 356 356 355 355 356 355 355 356 355 355 355 355 354 353 352 352 353 352 352 352 351 351 352 353 353 353 353 354 354
344 347 349 349 349 349 351 353 351 351 352 351 349 349 349 349 349 348 350 350 349 350 351 351 352 353 354 354 354 355 356 356 356 356 356 356 356 356 356 355 355 356 356 355 356 356 355 354 353 353 353 352 352 352 352 352 353 353 352 352 353 353 354
342 343 345 347 349 352 355 355 352 352 351 349 348 349 349 349 349 349 350 350 349 350 351 352 353 354 354 354 354 356 356 356 356 357 356 356 356 356 356 356 356 356 356 356 356 356 356 355 355 354 353 353 352 353 352 353 353 353 352 352 352 353 353
344 340 342 346 349 353 354 354 354 354 352 348 348 348 348 348 349 349 350 350 350 350 350 352 354 354 354 354 355 356 356 356 357 357 357 357 357 357 357 356 357 356 357 357 356 356 356 356 356 355 354 353 353 353 353 353 353 353 353 352 352 352 352
342 338 340 344 350 352 351 353 354 354 354 351 349 348 348 348 348 349 349 350 350 350 350 353 354 353 353 355 356 356 356 355 356 358 358 356 357 357 357 357 357 357 357 357 356 356 357 356 356 356 355 355 354 354 354 354 353 353 352 351 351 352 352
344 345 344 345 348 348 348 351 352 353 354 353 350 348 347 347 348 348 348 348 350 351 350 352 353 353 353 355 356 356 355 355 355 357 357 356 357 357 357 357 357 358 358 357 356 357 357 357 357 357 357 356 355 355 355 354 353 353 352 351 351 351 351
354 359 354 347 346 346 345 346 349 351 350 348 348 347 346 346 347 347 347 348 348 350 350 351 352 353 353 356 356 354 354 355 356 357 357 357 357 357 357 358 358 358 359 358 358 358 358 357 357 357 357 357 356 356 356 354 353 353 352 351 351 351 351
349 354 352 347 344 343 341 341 343 347 348 346 346 346 345 344 346 346 347 348 348 349 350 351 352 353 353 355 356 354 354 356 357 357 358 358 358 358 358 358 358 359 359 359 358 358 358 358 358 357 357 357 357 357 356 355 354 353 352 352 351 351 351
350 351 348 344 341 340 340 340 341 343 346 347 346 344 343 343 345 346 346 348 349 350 350 351 353 354 355 356 356 354 355 357 358 359 359 359 358 358 359 359 359 359 359 359 359 359 359 358 358 358 357 357 357 356 356 355 354 353 352 352 352 351 350
356 356 353 351 349 347 346 344 343 341 343 345 344 343 344 344 344 344 346 347 349 349 349 352 353 354 355 356 356 356 356 358 359 359 360 360 359 359 359 359 359 359 359 359 359 359 359 358 358 358 358 357 357 357 357 356 354 353 353 352 352 351 350
355 354 353 353 353 352 351 348 345 343 343 343 343 343 344 344 343 344 344 346 348 350 351 352 353 354 356 357 357 357 358 359 360 361 360 360 360 360 360 359 360 360 360 360 359 360 359 358 358 358 358 358 357 357 357 356 355 354 353 353 352 351 350
351 351 352 352 352 353 354 353 351 346 343 342 343 342 343 344 344 344 345 345 348 350 351 352 355 356 356 357 358 359 359 358 359 360 360 360 360 360 360 360 360 360 359 360 360 359 359 359 358 358 358 358 358 357 357 357 356 354 353 353 352 351 350
348 349 349 350 351 353 355 356 356 351 345 342 343 343 343 345 344 345 347 348 348 350 351 353 356 356 356 357 359 358 357 356 356 358 360 361 361 360 360 361 361 360 359 359 360 360 359 359 358 358 358 358 357 357 357 357 357 355 353 353 352 351 350
349 348 349 351 352 353 355 357 357 353 346 343 344 345 345 345 345 347 350 350 349 349 353 355 355 355 355 356 356 355 354 354 356 357 359 360 360 360 361 361 361 360 359 359 360 360 359 359 359 358 358 358 357 357 357 358 357 355 354 353 352 352 351
349 348 350 352 353 354 355 357 357 354 349 348 350 348 346 346 348 349 351 352 349 350 354 354 353 354 355 355 354 354 354 356 356 356 357 359 360 361 361 361 361 359 359 358 359 360 359 359 359 359 358 358 358 358 357 357 357 356 355 354 353 352 351
347 349 350 352 352 354 356 356 357 356 355 355 353 350 347 348 350 353 354 354 353 352 354 354 352 353 354 354 355 356 356 357 357 357 357 359 360 361 361 361 360 360 360 359 359 360 360 359 359 359 359 358 358 358 357 357 357 356 355 354 353 353 352
346 349 350 351 351 353 354 355 355 355 354 354 352 351 350 350 353 356 356 356 356 355 353 352 352 352 353 354 356 357 356 357 357 358 359 360 361 361 361 360 360 360 360 360 359 360 360 360 359 359 359 359 358 358 358 357 356 356 355 355 354 353 352
346 346 347 348 349 352 354 354 353 352 352 352 351 352 352 353 355 357 358 359 358 356 355 352 350 352 353 354 355 355 355 356 357 358 359 360 361 361 361 362 361 361 361 361 360 360 360 360 360 359 359 359 359 359 358 358 357 356 355 355 354 353 353
345 344 344 345 347 350 352 352 351 350 349 350 351 351 353 356 358 358 359 358 354 352 355 354 351 351 353 354 355 356 356 357 358 359 360 360 361 361 362 363 362 361 362 361 361 361 360 360 361 360 359 359 359 358 358 358 357 355 355 354 354 353 353
343 343 344 344 345 347 349 350 350 349 349 349 350 350 351 355 357 358 358 356 353 352 354 354 352 353 354 355 356 357 357 359 360 360 361 361 361 362 362 362 363 362 362 361 361 361 361 361 360 360 360 360 360 359 358 358 357 356 355 354 354 353 353
343 343 344 344 345 346 347 347 348 348 348 348 348 349 349 351 352 353 353 353 355 357 358 356 355 356 357 357 358 357 358 360 360 361 361 361 361 362 362 362 362 362 362 362 362 361 361 361 361 361 361 360 360 359 358 357 357 356 354 353 353 353 353
343 343 344 344 345 346 346 347 347 347 347 347 346 347 348 348 349 350 351 353 355 358 360 361 359 358 358 359 358 358 359 359 359 359 360 361 361 362 362 362 362 362 363 362 362 361 361 361 361 360 360 360 359 359 357 356 356 355 354 353 353 351 352
342 343 345 345 345 346 346 347 346 346 347 346 345 345 346 347 348 349 351 352 354 357 361 363 361 361 361 360 359 358 358 358 358 358 359 361 361 361 362 363 362 362 362 362 362 362 361 360 361 360 360 359 359 358 356 354 354 354 353 353 351 347 346
342 343 344 345 346 346 346 347 346 346 346 345 345 345 346 346 347 348 349 351 353 355 358 359 360 362 361 360 359 358 356 356 356 357 358 359 360 361 362 362 361 361 362 362 362 362 361 361 361 360 360 359 359 358 354 351 351 353 353 354 351 348 346
340 342 342 343 344 344 345 346 346 346 346 345 345 345 345 346 346 346 346 347 349 352 354 355 356 356 355 354 355 355 355 355 355 355 355 356 356 358 359 359 359 359 360 360 360 360 360 360 360 360 360 360 360 358 355 353 352 352 352 352 351 350 351
338 339 340 341 342 342 343 343 344 344 345 345 345 345 346 346 345 344 343 344 345 346 348 350 351 350 350 350 349 349 351 352 351 352 353 353 353 354 355 354 354 354 354 356 356 356 356 356 357 358 359 359 359 359 357 355 353 351 350 350 350 349 349
337 337 338 340 341 341 341 341 342 342 343 344 345 345 345 345 345 343 343 343 343 343 344 346 347 346 346 346 345 345 347 349 350 351 352 352 351 351 352 352 353 352 350 349 349 351 353 354 355 355 356 356 357 358 357 355 352 350 350 350 349 347 346

ECMWFFLT1_925_thetae_036.txt.gz
Theta_e
349 351 353 354 356 356 356 358 360 361 361 361 361 361 361 361 361 362 363 364 365 365 365 363 363 362 360 360 360 360 361 361 361 362 363 363 361 361 361 361 362 361 360 360 360 360 360 361 361 362 363 362 361 360 360 358 358 358 358 359 358 358 358
348 349 352 353 355 357 357 359 361 362 362 361 361 361 361 361 361 362 363 363 364 365 366 365 364 362 360 360 360 361 361 360 361 362 362 363 362 361 361 361 362 362 361 360 359 360 361 362 363 362 363 363 362 361 359 358 358 357 358 358 358 358 358
348 348 352 353 355 357 358 358 360 362 361 361 362 361 361 362 362 362 363 364 365 365 365 365 364 362 360 361 361 361 361 361 362 362 362 363 363 361 361 362 362 362 361 361 360 361 361 362 363 363 363 363 361 361 360 358 357 357 357 358 359 358 358
349 349 350 353 356 358 357 357 359 361 361 361 361 361 361 362 362 362 362 363 364 365 365 365 364 363 362 362 362 362 362 361 361 361 362 363 363 362 362 363 362 361 362 361 360 360 361 362 364 364 363 363 362 361 361 359 358 358 357 358 359 358 358
349 349 350 353 355 356 357 356 358 361 360 360 361 361 362 362 362 362 362 362 363 364 364 364 364 364 363 363 362 362 361 361 362 362 362 363 363 363 362 362 363 362 361 361 361 360 361 362 363 364 364 363 362 361 361 361 360 359 358 358 358 358 357
347 349 351 352 353 355 357 356 357 360 360 358 360 361 361 361 361 361 361 362 363 363 364 364 364 364 364 363 362 363 363 363 363 362 363 364 363 364 363 362 362 362 360 360 361 361 361 362 362 363 364 363 361 360 361 362 361 359 359 358 358 358 356
342 350 353 352 352 353 354 355 356 358 359 358 358 360 360 360 360 359 360 361 362 362 362 363 363 363 363 363 363 363 364 364 364 364 364 364 363 363 363 362 362 362 361 361 361 361 362 362 361 361 363 363 362 361 361 362 362 360 360 359 359 358 357
340 349 352 351 351 351 352 354 354 356 358 357 357 358 358 358 358 359 359 360 360 360 361 361 362 362 363 363 363 363 363 364 364 364 364 363 363 363 363 362 362 362 361 361 361 361 361 362 362 361 362 363 362 362 361 362 362 361 360 360 359 359 358
340 348 351 350 348 348 351 353 355 356 357 357 356 357 357 357 357 358 358 358 359 359 359 359 360 362 363 363 363 363 363 363 363 364 364 363 363 362 362 363 362 362 361 361 361 362 361 361 362 362 362 363 363 363 362 363 362 361 361 361 360 360 359
343 348 351 349 345 347 348 349 354 355 355 358 358 357 357 356 356 357 357 357 357 357 358 358 359 361 362 363 363 362 363 363 363 363 363 363 362 362 362 362 362 362 361 361 360 361 362 362 362 363 364 364 363 364 364 364 363 361 361 361 361 360 361
349 353 354 350 346 346 345 347 354 357 358 360 359 356 356 356 356 355 356 356 356 356 357 358 358 359 362 363 362 362 363 363 362 362 362 362 362 361 362 361 361 362 362 361 360 360 362 362 362 363 364 364 364 364 365 365 363 362 361 362 362 361 362
352 353 354 353 350 348 347 349 354 357 360 360 358 357 356 356 356 355 355 355 354 355 356 357 358 359 360 362 362 362 362 362 362 361 362 362 361 360 360 360 360 361 362 361 361 360 361 362 363 363 364 365 365 364 365 365 364 363 362 362 362 362 362
351 351 352 352 352 352 351 352 353 357 360 359 356 356 356 355 355 354 354 355 354 354 355 356 357 358 359 361 362 362 362 362 362 361 361 361 361 360 360 360 359 360 361 362 361 361 360 361 363 363 364 365 365 364 365 365 365 365 364 363 362 362 362
346 349 352 353 355 357 357 355 356 357 358 358 356 355 354 355 354 353 354 354 354 354 354 355 357 357 358 360 361 362 362 361 362 362 361 361 361 361 360 360 360 359 360 361 361 361 360 360 362 363 364 365 365 365 364 365 365 365 365 364 362 362 363
337 341 348 352 357 360 361 360 360 358 357 356 355 353 354 354 354 354 353 354 354 353 354 354 356 357 358 359 361 362 362 361 362 362 362 362 362 362 361 361 360 360 360 361 361 362 361 360 361 363 364 364 365 365 364 364 365 364 364 364 363 362 362
332 332 337 345 353 359 362 363 362 360 359 357 354 353 353 353 353 354 353 354 354 354 353 354 356 357 358 359 361 362 362 362 362 363 363 362 363 363 362 361 361 361 361 361 362 362 361 361 360 362 363 364 365 365 364 364 364 363 361 361 362 362 362
333 331 332 338 346 354 360 361 361 361 360 358 357 354 352 353 354 354 353 353 354 354 354 353 355 358 358 359 360 362 363 364 363 363 364 363 363 363 363 362 362 362 362 362 362 362 362 362 361 361 362 364 364 364 364 364 363 361 359 358 358 360 362
334 336 335 335 341 351 356 357 358 361 359 357 357 355 353 353 354 353 352 352 353 354 354 353 355 357 358 360 361 362 364 365 364 365 365 365 365 364 364 363 362 362 363 363 363 363 363 362 362 362 361 363 364 364 364 364 362 360 359 357 356 356 359
332 333 333 332 338 349 352 349 351 355 355 354 355 353 352 353 353 353 352 352 352 353 353 353 355 357 360 361 361 364 366 365 366 366 366 366 365 365 365 364 363 363 363 363 364 364 364 363 363 363 362 362 363 364 363 364 363 360 358 357 356 354 355
333 335 335 335 335 341 346 348 349 351 352 353 352 350 350 351 351 352 352 352 352 352 353 353 354 358 362 363 363 365 367 366 366 367 367 367 366 366 366 365 364 364 363 363 364 364 365 364 363 363 363 363 363 364 364 364 363 361 358 356 356 354 353
335 335 335 337 341 346 353 356 355 352 352 351 349 349 350 350 350 350 351 351 351 352 353 355 355 357 361 363 363 366 367 366 366 366 367 367 366 366 366 366 365 364 363 363 364 365 365 364 364 364 364 364 364 364 364 364 362 361 360 357 356 354 353
332 334 337 345 353 359 363 363 359 356 355 351 349 348 349 349 349 348 349 350 350 351 353 354 355 357 359 362 364 366 366 367 366 366 366 366 366 366 366 366 366 365 364 363 363 364 365 364 364 364 363 363 363 362 362 363 362 361 360 358 357 355 354
336 343 349 353 357 361 363 363 362 360 358 355 351 348 347 349 349 348 348 349 350 352 352 354 357 358 360 363 364 366 367 366 365 365 366 366 366 366 365 365 365 365 365 364 364 364 365 364 364 363 363 363 362 361 362 363 363 361 359 358 357 356 354
344 349 352 354 357 359 362 363 364 363 362 360 354 350 348 348 347 348 348 348 349 352 353 354 357 360 362 364 365 366 367 365 365 366 366 366 366 366 365 365 365 366 365 365 364 365 365 365 364 364 363 363 362 362 361 363 363 361 359 358 357 356 354
352 352 354 357 359 360 362 365 365 365 364 362 357 351 348 348 348 348 349 349 349 351 353 355 357 361 364 364 365 367 366 365 366 366 366 367 366 366 366 366 366 366 366 365 365 365 365 365 364 364 363 362 362 362 361 362 363 362 360 358 357 356 354
355 355 356 359 360 360 362 364 366 365 362 360 358 353 348 348 348 348 350 350 349 350 353 354 356 360 363 363 364 367 365 365 366 366 366 367 367 367 367 366 366 366 366 365 365 364 364 364 364 364 363 363 362 361 360 361 361 361 360 359 358 356 355
354 356 357 359 360 360 361 363 365 364 361 361 360 355 351 350 349 349 351 353 352 351 352 354 357 362 363 363 365 366 365 365 366 366 366 367 368 367 367 367 366 366 366 366 365 365 365 364 364 364 363 363 361 360 361 360 360 360 360 360 359 357 355
354 356 356 358 358 359 361 363 362 362 360 359 358 355 352 351 351 353 354 355 355 352 350 354 360 364 365 363 364 366 366 366 366 367 366 366 367 367 367 367 366 366 367 366 365 365 365 364 364 362 362 361 361 360 361 360 360 360 360 359 359 358 355
353 353 354 355 356 357 359 362 362 361 361 359 360 359 357 354 355 357 358 358 358 354 352 356 362 365 365 364 364 365 366 367 366 366 365 364 365 367 367 367 366 366 367 367 365 365 364 363 363 362 361 361 361 361 361 362 361 361 359 359 359 358 356
350 350 352 353 353 354 357 360 361 360 359 359 360 363 363 361 360 362 363 365 365 360 359 362 364 364 364 364 364 364 366 367 365 364 363 363 364 365 366 365 365 366 367 366 365 363 363 362 362 362 362 361 361 361 361 362 362 361 360 359 358 358 357
349 350 351 352 352 352 354 357 358 357 357 358 358 360 363 364 365 366 367 366 365 364 362 362 363 364 364 363 364 365 365 365 365 364 364 363 364 365 366 366 367 367 366 366 365 363 363 363 362 362 362 362 362 362 362 362 362 361 361 360 359 358 357
348 349 350 351 351 352 353 354 355 355 355 355 355 357 359 361 362 364 363 362 363 365 364 362 363 363 362 362 364 364 364 365 364 364 364 363 364 365 366 366 367 367 366 366 364 363 363 363 362 362 363 363 362 362 362 361 362 363 362 361 360 358 357
347 348 349 350 351 351 352 352 353 353 353 353 354 356 357 357 358 360 360 360 362 365 366 365 364 363 362 362 362 363 363 364 363 363 363 364 363 364 365 366 366 367 367 366 364 363 364 363 362 362 362 363 362 362 362 363 362 363 363 362 359 357 356
347 347 349 350 350 351 351 351 352 351 351 352 353 354 355 356 356 357 359 360 362 365 367 366 365 364 364 363 363 363 363 363 362 361 362 363 364 364 364 365 364 365 365 365 364 364 363 362 363 362 361 361 361 361 362 362 362 363 364 362 358 354 353
346 347 348 349 349 350 350 351 350 350 351 351 352 352 352 352 353 354 356 358 360 364 366 365 365 365 365 364 364 363 363 364 363 362 362 363 363 363 363 363 364 365 364 364 364 364 364 364 363 362 362 362 362 363 363 363 363 363 362 362 359 354 352
345 347 347 347 347 348 349 349 349 350 350 350 350 349 350 350 350 351 352 353 356 359 361 361 362 362 361 362 362 361 361 362 362 361 361 360 360 361 363 363 363 363 363 364 363 362 362 362 362 362 361 361 361 362 363 363 363 363 363 362 361 358 356
343 345 346 346 346 347 347 348 349 349 349 349 349 349 349 348 349 349 350 350 352 354 357 358 358 358 358 358 358 358 359 360 359 359 359 359 359 360 361 360 361 360 358 358 359 359 359 358 358 358 358 358 359 360 361 362 362 362 362 362 361 360 358
343 344 345 345 345 346 346 347 347 347 347 348 349 348 348 348 349 349 349 348 349 350 352 354 355 356 356 355 355 356 357 358 358 359 359 360 360 360 359 359 360 358 350 344 344 345 344 342 341 341 342 344 345 347 349 352 356 358 360 361 360 360 358